CW5983 Weather Reports


Display with metric or nautical units.
time (UTC)temp
F
wind
direction
speed
MPH
gust
MPH
rain 1hr
in
rain 24hr
in
rain mn
in
humidity
%
barometer
mb
20231205190703 69 302 4.0 4.0 0.00 0.00 0.00 43 1020.2
20231205190604 69 302 2.0 5.0 0.00 0.00 0.00 43 1020.2
20231205190504 69 302 3.0 5.0 0.00 0.00 0.00 43 1020.2
20231205190402 69 302 3.0 5.0 0.00 0.00 0.00 43 1020.2
20231205190302 69 302 2.0 5.0 0.00 0.00 0.00 43 1020.3
20231205190103 69 302 3.0 5.0 0.00 0.00 0.00 43 1020.2
20231205190010 69 302 3.0 5.0 0.00 0.00 0.00 42 1020.2
20231205185904 69 302 1.0 5.0 0.00 0.00 0.00 42 1020.3
20231205185703 69 302 2.0 5.0 0.00 0.00 0.00 42 1020.2
20231205185604 69 301 3.0 7.0 0.00 0.00 0.00 42 1020.2
20231205185505 69 301 3.0 7.0 0.00 0.00 0.00 42 1020.2
20231205185407 69 301 4.0 7.0 0.00 0.00 0.00 42 1020.2
20231205185306 69 302 5.0 7.0 0.00 0.00 0.00 42 1020.3
20231205185104 69 302 3.0 7.0 0.00 0.00 0.00 42 1020.4
20231205185006 69 298 4.0 7.0 0.00 0.00 0.00 42 1020.4
20231205184904 69 296 2.0 7.0 0.00 0.00 0.00 42 1020.4
20231205184805 69 293 3.0 7.0 0.00 0.00 0.00 42 1020.4
20231205184704 69 288 5.0 7.0 0.00 0.00 0.00 42 1020.4
20231205184508 69 288 3.0 7.0 0.00 0.00 0.00 42 1020.4
20231205184404 69 289 3.0 7.0 0.00 0.00 0.00 42 1020.4
20231205184303 69 289 4.0 7.0 0.00 0.00 0.00 42 1020.3
20231205184205 70 288 3.0 7.0 0.00 0.00 0.00 42 1020.3
20231205184104 70 288 3.0 7.0 0.00 0.00 0.00 41 1020.4
20231205184006 70 286 7.0 7.0 0.00 0.00 0.00 41 1020.4
20231205183905 70 288 4.0 7.0 0.00 0.00 0.00 41 1020.4
20231205183803 70 288 2.0 7.0 0.00 0.00 0.00 41 1020.4
20231205183704 70 287 2.0 7.0 0.00 0.00 0.00 41 1020.4
20231205183604 70 288 4.0 7.0 0.00 0.00 0.00 41 1020.4
20231205183404 70 288 4.0 7.0 0.00 0.00 0.00 41 1020.4
20231205183305 70 288 5.0 7.0 0.00 0.00 0.00 41 1020.4
20231205183204 70 295 5.0 7.0 0.00 0.00 0.00 41 1020.4
20231205183103 70 295 5.0 5.0 0.00 0.00 0.00 41 1020.4
20231205183008 70 298 3.0 5.0 0.00 0.00 0.00 41 1020.4
20231205182804 70 300 3.0 5.0 0.00 0.00 0.00 41 1020.4
20231205182704 70 300 3.0 5.0 0.00 0.00 0.00 41 1020.5
20231205182605 70 298 3.0 5.0 0.00 0.00 0.00 41 1020.4
20231205182404 70 297 5.0 5.0 0.00 0.00 0.00 41 1020.4
20231205182306 70 297 4.0 5.0 0.00 0.00 0.00 41 1020.4
20231205182203 70 298 3.0 5.0 0.00 0.00 0.00 42 1020.4
20231205182104 70 299 3.0 5.0 0.00 0.00 0.00 42 1020.3
20231205182007 70 299 2.0 5.0 0.00 0.00 0.00 42 1020.4
20231205181803 70 299 2.0 5.0 0.00 0.00 0.00 42 1020.4
20231205181703 70 299 2.0 5.0 0.00 0.00 0.00 42 1020.4
20231205181604 70 299 4.0 4.0 0.00 0.00 0.00 42 1020.4
20231205181506 70 299 3.0 4.0 0.00 0.00 0.00 42 1020.4
20231205181404 70 299 2.0 5.0 0.00 0.00 0.00 42 1020.4
20231205181305 70 299 2.0 5.0 0.00 0.00 0.00 42 1020.4
20231205181204 70 299 2.0 5.0 0.00 0.00 0.00 42 1020.3
20231205181104 70 299 2.0 5.0 0.00 0.00 0.00 42 1020.3
20231205181008 70 299 1.0 5.0 0.00 0.00 0.00 42 1020.3
20231205180904 70 299 2.0 5.0 0.00 0.00 0.00 42 1020.3
20231205180805 70 298 3.0 5.0 0.00 0.00 0.00 42 1020.4
20231205180704 70 298 3.0 5.0 0.00 0.00 0.00 42 1020.4
20231205180604 70 298 2.0 5.0 0.00 0.00 0.00 42 1020.3
20231205180506 70 290 3.0 4.0 0.00 0.00 0.00 42 1020.4
20231205180403 70 290 2.0 4.0 0.00 0.00 0.00 42 1020.4
20231205180303 70 290 2.0 4.0 0.00 0.00 0.00 42 1020.3
20231205180204 70 290 1.0 4.0 0.00 0.00 0.00 42 1020.3
20231205180008 71 290 1.0 5.0 0.00 0.00 0.00 42 1020.4
20231205175903 71 290 3.0 5.0 0.00 0.00 0.00 42 1020.3
20231205175603 71 290 3.0 5.0 0.00 0.00 0.00 42 1020.4
20231205175504 71 290 3.0 5.0 0.00 0.00 0.00 42 1020.4
20231205175402 71 290 2.0 5.0 0.00 0.00 0.00 42 1020.4
20231205175305 71 290 2.0 7.0 0.00 0.00 0.00 42 1020.4
20231205175204 71 288 4.0 7.0 0.00 0.00 0.00 41 1020.4
20231205175102 71 287 4.0 7.0 0.00 0.00 0.00 41 1020.4
20231205175006 71 287 3.0 7.0 0.00 0.00 0.00 41 1020.4
20231205174903 71 286 2.0 7.0 0.00 0.00 0.00 41 1020.4
20231205174802 71 286 3.0 7.0 0.00 0.00 0.00 41 1020.4
20231205174603 71 288 3.0 7.0 0.00 0.00 0.00 41 1020.4
20231205174303 71 288 4.0 5.0 0.00 0.00 0.00 41 1020.4
20231205174203 71 288 4.0 5.0 0.00 0.00 0.00 41 1020.4
20231205174103 71 289 4.0 4.0 0.00 0.00 0.00 41 1020.4
20231205174005 71 288 2.0 4.0 0.00 0.00 0.00 41 1020.4
20231205173803 71 288 3.0 4.0 0.00 0.00 0.00 41 1020.4
20231205173704 71 288 4.0 4.0 0.00 0.00 0.00 41 1020.4
20231205173603 71 288 2.0 5.0 0.00 0.00 0.00 41 1020.4
20231205173505 71 288 4.0 5.0 0.00 0.00 0.00 41 1020.4
20231205173403 71 288 2.0 5.0 0.00 0.00 0.00 41 1020.5
20231205173203 71 289 3.0 5.0 0.00 0.00 0.00 41 1020.4
20231205173103 71 289 3.0 5.0 0.00 0.00 0.00 41 1020.5
20231205173006 71 289 3.0 5.0 0.00 0.00 0.00 41 1020.5
20231205172802 71 288 3.0 5.0 0.00 0.00 0.00 41 1020.5
20231205172703 71 288 4.0 5.0 0.00 0.00 0.00 41 1020.5
20231205172603 71 288 3.0 5.0 0.00 0.00 0.00 41 1020.5
20231205172505 71 288 4.0 5.0 0.00 0.00 0.00 41 1020.5
20231205172403 71 288 3.0 5.0 0.00 0.00 0.00 41 1020.5
20231205172305 71 289 3.0 5.0 0.00 0.00 0.00 41 1020.5
20231205172203 71 289 4.0 5.0 0.00 0.00 0.00 41 1020.5
20231205172102 71 290 3.0 5.0 0.00 0.00 0.00 41 1020.5
20231205172006 71 290 4.0 5.0 0.00 0.00 0.00 41 1020.5
20231205171803 71 290 4.0 5.0 0.00 0.00 0.00 41 1020.5
20231205171604 71 290 5.0 5.0 0.00 0.00 0.00 41 1020.5
20231205171505 71 289 4.0 4.0 0.00 0.00 0.00 41 1020.5
20231205171303 72 289 4.0 4.0 0.00 0.00 0.00 41 1020.5
20231205171202 72 289 4.0 4.0 0.00 0.00 0.00 41 1020.5
20231205170903 72 289 2.0 4.0 0.00 0.00 0.00 41 1020.5
20231205170802 72 289 2.0 4.0 0.00 0.00 0.00 41 1020.5
20231205170703 72 289 3.0 4.0 0.00 0.00 0.00 41 1020.5
20231205170611 72 289 2.0 5.0 0.00 0.00 0.00 41 1020.5
20231205170006 72 289 3.0 7.0 0.00 0.00 0.00 41 1020.6
20231205165904 72 289 3.0 7.0 0.00 0.00 0.00 41 1020.6
20231205165803 72 289 4.0 7.0 0.00 0.00 0.00 40 1020.5
20231205165703 72 289 3.0 7.0 0.00 0.00 0.00 41 1020.5
20231205165603 72 289 3.0 7.0 0.00 0.00 0.00 41 1020.5
20231205165402 72 288 4.0 7.0 0.00 0.00 0.00 40 1020.5
20231205165306 72 287 5.0 5.0 0.00 0.00 0.00 40 1020.5
20231205165104 72 287 4.0 5.0 0.00 0.00 0.00 40 1020.4
20231205165005 72 287 4.0 5.0 0.00 0.00 0.00 40 1020.5
20231205164903 72 289 3.0 5.0 0.00 0.00 0.00 40 1020.4
20231205164802 72 289 4.0 5.0 0.00 0.00 0.00 40 1020.4
20231205164702 72 290 4.0 5.0 0.00 0.00 0.00 40 1020.4
20231205164603 72 288 3.0 5.0 0.00 0.00 0.00 40 1020.4
20231205164506 72 288 2.0 5.0 0.00 0.00 0.00 40 1020.3
20231205164402 72 288 2.0 7.0 0.00 0.00 0.00 40 1020.4
20231205164303 72 288 3.0 7.0 0.00 0.00 0.00 40 1020.4
20231205164203 72 288 4.0 7.0 0.00 0.00 0.00 40 1020.4
20231205164104 72 290 3.0 7.0 0.00 0.00 0.00 39 1020.3
20231205164006 72 290 4.0 7.0 0.00 0.00 0.00 39 1020.4
20231205163903 72 290 4.0 7.0 0.00 0.00 0.00 39 1020.3
20231205163802 72 290 3.0 7.0 0.00 0.00 0.00 39 1020.4
20231205163703 72 290 5.0 7.0 0.00 0.00 0.00 39 1020.4
20231205163505 72 294 3.0 7.0 0.00 0.00 0.00 39 1020.3
20231205163402 72 295 3.0 5.0 0.00 0.00 0.00 39 1020.3
20231205163307 72 295 4.0 5.0 0.00 0.00 0.00 39 1020.3
20231205163203 73 296 4.0 5.0 0.00 0.00 0.00 38 1020.3
20231205163104 73 296 4.0 5.0 0.00 0.00 0.00 38 1020.3
20231205163007 73 297 3.0 5.0 0.00 0.00 0.00 38 1020.3
20231205162903 73 297 4.0 5.0 0.00 0.00 0.00 38 1020.3
20231205162803 73 297 4.0 5.0 0.00 0.00 0.00 38 1020.3
20231205162705 73 296 3.0 5.0 0.00 0.00 0.00 38 1020.3
20231205162604 73 296 3.0 8.0 0.00 0.00 0.00 38 1020.2
20231205162505 73 296 4.0 8.0 0.00 0.00 0.00 38 1020.2
20231205162402 73 296 4.0 8.0 0.00 0.00 0.00 38 1020.3
20231205162305 73 296 3.0 8.0 0.00 0.00 0.00 38 1020.2
20231205162202 73 297 2.0 8.0 0.00 0.00 0.00 37 1020.3
20231205162102 73 297 3.0 8.0 0.00 0.00 0.00 37 1020.2
20231205162005 73 297 2.0 8.0 0.00 0.00 0.00 37 1020.2
20231205161805 73 297 8.0 8.0 0.00 0.00 0.00 37 1020.2
20231205161702 73 310 3.0 6.0 0.00 0.00 0.00 37 1020.1
20231205161604 73 311 3.0 6.0 0.00 0.00 0.00 37 1020.2
20231205161505 73 311 5.0 5.0 0.00 0.00 0.00 37 1020.2
20231205161404 73 311 2.0 5.0 0.00 0.00 0.00 37 1020.3
20231205161304 73 311 4.0 5.0 0.00 0.00 0.00 37 1020.2
20231205161202 73 313 3.0 5.0 0.00 0.00 0.00 37 1020.2
20231205161102 73 315 4.0 5.0 0.00 0.00 0.00 37 1020.2
20231205161006 73 316 4.0 5.0 0.00 0.00 0.00 37 1020.2
20231205160903 73 317 4.0 5.0 0.00 0.00 0.00 37 1020.2
20231205160803 74 318 4.0 5.0 0.00 0.00 0.00 37 1020.2
20231205160703 74 319 3.0 5.0 0.00 0.00 0.00 37 1020.1
20231205160603 74 319 3.0 5.0 0.00 0.00 0.00 37 1020.1
20231205160505 74 319 3.0 5.0 0.00 0.00 0.00 37 1020.2
20231205160403 74 319 4.0 5.0 0.00 0.00 0.00 37 1020.1
20231205160303 74 320 5.0 5.0 0.00 0.00 0.00 37 1020.1
20231205160203 74 321 3.0 5.0 0.00 0.00 0.00 37 1020.1
20231205160103 74 322 2.0 5.0 0.00 0.00 0.00 37 1020.2
20231205160006 74 325 4.0 5.0 0.00 0.00 0.00 36 1020.1
20231205155903 74 325 3.0 5.0 0.00 0.00 0.00 36 1020.1
20231205155803 74 325 5.0 5.0 0.00 0.00 0.00 36 1020.2
20231205155602 74 332 5.0 5.0 0.00 0.00 0.00 36 1020.2
20231205155505 74 338 4.0 5.0 0.00 0.00 0.00 36 1020.1
20231205155306 74 339 2.0 4.0 0.00 0.00 0.00 36 1020.2
20231205155202 74 339 2.0 4.0 0.00 0.00 0.00 36 1020.2
20231205155104 74 339 2.0 4.0 0.00 0.00 0.00 36 1020.2
20231205155006 74 339 2.0 5.0 0.00 0.00 0.00 36 1020.1
20231205154903 74 339 1.0 5.0 0.00 0.00 0.00 36 1020.1
20231205154802 74 339 2.0 5.0 0.00 0.00 0.00 36 1020.1
20231205154603 74 339 2.0 5.0 0.00 0.00 0.00 36 1020.1
20231205154505 74 339 2.0 5.0 0.00 0.00 0.00 36 1020.1
20231205154403 74 339 2.0 5.0 0.00 0.00 0.00 36 1020.1
20231205154303 74 339 2.0 5.0 0.00 0.00 0.00 36 1020.1
20231205154202 74 339 2.0 5.0 0.00 0.00 0.00 36 1020.1
20231205154102 74 339 4.0 5.0 0.00 0.00 0.00 36 1020.1
20231205154006 74 340 3.0 5.0 0.00 0.00 0.00 36 1020.1
20231205153903 74 341 4.0 4.0 0.00 0.00 0.00 36 1020.1
20231205153703 74 342 3.0 4.0 0.00 0.00 0.00 36 1020.0
20231205153602 74 342 2.0 4.0 0.00 0.00 0.00 36 1020.0
20231205153402 74 342 3.0 4.0 0.00 0.00 0.00 36 1019.9
20231205153304 74 342 1.0 4.0 0.00 0.00 0.00 36 1019.9
20231205153004 74 342 3.0 3.0 0.00 0.00 0.00 36 1019.9
20231205152802 74 342 2.0 4.0 0.00 0.00 0.00 36 1019.8
20231205152703 74 342 2.0 5.0 0.00 0.00 0.00 36 1019.8
20231205152505 74 342 2.0 5.0 0.00 0.00 0.00 35 1019.8
20231205152403 75 342 2.0 5.0 0.00 0.00 0.00 35 1019.8
20231205152305 75 342 2.0 5.0 0.00 0.00 0.00 35 1019.7
20231205152202 75 342 2.0 5.0 0.00 0.00 0.00 35 1019.8
20231205152102 75 342 2.0 5.0 0.00 0.00 0.00 35 1019.7
20231205152005 75 342 2.0 5.0 0.00 0.00 0.00 35 1019.7
20231205151804 75 342 3.0 5.0 0.00 0.00 0.00 35 1019.7
20231205151507 75 342 2.0 6.0 0.00 0.00 0.00 35 1019.7
20231205151403 75 342 2.0 6.0 0.00 0.00 0.00 35 1019.7
20231205151303 75 342 4.0 6.0 0.00 0.00 0.00 35 1019.7
20231205151103 75 342 4.0 6.0 0.00 0.00 0.00 35 1019.7
20231205151005 75 342 5.0 6.0 0.00 0.00 0.00 35 1019.6
20231205150903 75 342 4.0 6.0 0.00 0.00 0.00 35 1019.6
20231205150803 75 340 4.0 6.0 0.00 0.00 0.00 35 1019.6
20231205150703 75 340 4.0 6.0 0.00 0.00 0.00 35 1019.6
20231205150603 75 336 6.0 6.0 0.00 0.00 0.00 35 1019.6
20231205150507 75 344 4.0 5.0 0.00 0.00 0.00 35 1019.6
20231205150402 75 343 4.0 6.0 0.00 0.00 0.00 35 1019.5
20231205150310 75 343 3.0 6.0 0.00 0.00 0.00 35 1019.5
20231205150102 75 343 2.0 8.0 0.00 0.00 0.00 35 1019.5
20231205150010 75 343 3.0 8.0 0.00 0.00 0.00 35 1019.6
20231205145903 75 343 3.0 8.0 0.00 0.00 0.00 35 1019.5
20231205145803 75 343 5.0 8.0 0.00 0.00 0.00 35 1019.5
20231205145703 75 343 4.0 8.0 0.00 0.00 0.00 35 1019.5
20231205145602 75 344 3.0 8.0 0.00 0.00 0.00 35 1019.5
20231205145411 75 344 4.0 8.0 0.00 0.00 0.00 35 1019.4
20231205145104 75 10 4.0 5.0 0.00 0.00 0.00 36 1019.5
20231205145004 75 10 3.0 5.0 0.00 0.00 0.00 36 1019.4
20231205144903 75 10 3.0 5.0 0.00 0.00 0.00 36 1019.4
20231205144802 75 10 5.0 5.0 0.00 0.00 0.00 36 1019.4
20231205144703 75 11 3.0 5.0 0.00 0.00 0.00 36 1019.4
20231205144603 75 11 4.0 5.0 0.00 0.00 0.00 37 1019.3
20231205144504 75 12 3.0 5.0 0.00 0.00 0.00 36 1019.3
20231205144403 75 13 2.0 5.0 0.00 0.00 0.00 36 1019.4
20231205144302 75 13 3.0 5.0 0.00 0.00 0.00 37 1019.3
20231205144203 75 13 2.0 5.0 0.00 0.00 0.00 36 1019.3
20231205144102 75 13 3.0 5.0 0.00 0.00 0.00 37 1019.4
20231205144010 75 13 4.0 5.0 0.00 0.00 0.00 37 1019.3
20231205143903 75 14 2.0 4.0 0.00 0.00 0.00 37 1019.4
20231205143802 75 14 2.0 4.0 0.00 0.00 0.00 37 1019.4
20231205143703 75 14 2.0 4.0 0.00 0.00 0.00 37 1019.3
20231205143602 75 14 3.0 4.0 0.00 0.00 0.00 38 1019.4
20231205143504 75 14 3.0 4.0 0.00 0.00 0.00 38 1019.2
20231205143403 75 14 2.0 4.0 0.00 0.00 0.00 38 1019.3
20231205143302 75 14 3.0 4.0 0.00 0.00 0.00 38 1019.2
20231205143203 75 14 2.0 4.0 0.00 0.00 0.00 38 1019.2
20231205143103 75 14 3.0 4.0 0.00 0.00 0.00 38 1019.2
20231205143008 75 15 3.0 4.0 0.00 0.00 0.00 38 1019.2
20231205142803 75 15 1.0 4.0 0.00 0.00 0.00 38 1019.2
20231205142703 75 15 3.0 4.0 0.00 0.00 0.00 38 1019.2
20231205142603 74 15 3.0 4.0 0.00 0.00 0.00 39 1019.2
20231205142505 74 15 2.0 4.0 0.00 0.00 0.00 39 1019.1
20231205142402 74 15 3.0 4.0 0.00 0.00 0.00 39 1019.2
20231205142306 74 15 3.0 4.0 0.00 0.00 0.00 39 1019.2
20231205142103 74 15 2.0 4.0 0.00 0.00 0.00 39 1019.2
20231205142005 74 15 3.0 4.0 0.00 0.00 0.00 40 1019.3
20231205141903 74 15 2.0 4.0 0.00 0.00 0.00 40 1019.2
20231205141802 74 15 3.0 4.0 0.00 0.00 0.00 41 1019.2
20231205141505 74 15 2.0 4.0 0.00 0.00 0.00 41 1019.2
20231205141402 74 15 2.0 4.0 0.00 0.00 0.00 41 1019.2
20231205141303 74 15 4.0 4.0 0.00 0.00 0.00 41 1019.2
20231205141203 74 15 3.0 4.0 0.00 0.00 0.00 42 1019.2
20231205141103 74 15 3.0 4.0 0.00 0.00 0.00 42 1019.2
20231205140802 74 15 2.0 4.0 0.00 0.00 0.00 43 1019.2
20231205140703 74 15 3.0 4.0 0.00 0.00 0.00 44 1019.1
20231205140603 74 15 2.0 4.0 0.00 0.00 0.00 44 1019.2
20231205140504 74 15 3.0 4.0 0.00 0.00 0.00 44 1019.1
20231205140403 74 15 3.0 4.0 0.00 0.00 0.00 44 1019.1
20231205140302 74 16 3.0 4.0 0.00 0.00 0.00 44 1019.0
20231205140203 74 16 3.0 4.0 0.00 0.00 0.00 44 1019.1
20231205140103 75 16 3.0 4.0 0.00 0.00 0.00 44 1019.1
20231205140008 75 16 2.0 4.0 0.00 0.00 0.00 43 1019.1
20231205135904 75 16 4.0 4.0 0.00 0.00 0.00 43 1019.0
20231205135802 75 16 3.0 4.0 0.00 0.00 0.00 43 1019.0
20231205135702 75 16 3.0 4.0 0.00 0.00 0.00 43 1019.1
20231205135504 75 15 3.0 4.0 0.00 0.00 0.00 43 1019.1
20231205135404 75 16 2.0 4.0 0.00 0.00 0.00 42 1019.1
20231205135305 75 16 2.0 4.0 0.00 0.00 0.00 42 1019.0
20231205135203 75 16 2.0 4.0 0.00 0.00 0.00 42 1019.0
20231205135103 75 15 2.0 4.0 0.00 0.00 0.00 42 1019.1
20231205135005 75 15 3.0 4.0 0.00 0.00 0.00 42 1019.0
20231205134904 75 16 2.0 5.0 0.00 0.00 0.00 41 1019.0
20231205134803 75 16 2.0 5.0 0.00 0.00 0.00 41 1019.1
20231205134703 75 16 3.0 5.0 0.00 0.00 0.00 41 1019.1
20231205134603 75 16 2.0 5.0 0.00 0.00 0.00 41 1019.0
20231205134504 75 16 3.0 5.0 0.00 0.00 0.00 42 1019.0
20231205134303 75 16 3.0 5.0 0.00 0.00 0.00 42 1019.1
20231205134202 75 16 3.0 5.0 0.00 0.00 0.00 42 1019.0
20231205134102 75 16 4.0 5.0 0.00 0.00 0.00 43 1019.0
20231205134006 75 17 3.0 5.0 0.00 0.00 0.00 44 1019.0
20231205133803 75 17 4.0 4.0 0.00 0.00 0.00 43 1019.0
20231205133702 75 17 3.0 5.0 0.00 0.00 0.00 43 1019.0
20231205133602 75 17 2.0 5.0 0.00 0.00 0.00 43 1019.0
20231205133505 75 17 2.0 5.0 0.00 0.00 0.00 43 1019.0
20231205133402 75 17 1.0 5.0 0.00 0.00 0.00 43 1019.0
20231205133303 75 17 2.0 5.0 0.00 0.00 0.00 43 1019.1
20231205133203 75 17 4.0 5.0 0.00 0.00 0.00 43 1019.0
20231205133104 75 17 3.0 5.0 0.00 0.00 0.00 41 1019.1
20231205133006 75 17 3.0 6.0 0.00 0.00 0.00 41 1019.1
20231205132903 75 17 4.0 6.0 0.00 0.00 0.00 41 1019.0
20231205132803 75 17 3.0 6.0 0.00 0.00 0.00 42 1019.1
20231205132702 75 17 4.0 6.0 0.00 0.00 0.00 42 1019.1
20231205132603 75 17 4.0 6.0 0.00 0.00 0.00 42 1019.1
20231205132504 75 17 5.0 6.0 0.00 0.00 0.00 42 1019.1
20231205132305 76 18 4.0 6.0 0.00 0.00 0.00 43 1019.2
20231205132202 76 19 4.0 6.0 0.00 0.00 0.00 43 1019.1
20231205132102 76 22 3.0 6.0 0.00 0.00 0.00 43 1019.2
20231205132004 76 22 5.0 6.0 0.00 0.00 0.00 43 1019.2
20231205131902 76 23 3.0 6.0 0.00 0.00 0.00 42 1019.2
20231205131802 76 23 3.0 6.0 0.00 0.00 0.00 42 1019.1
20231205131703 76 23 3.0 6.0 0.00 0.00 0.00 42 1019.1
20231205131602 76 23 5.0 6.0 0.00 0.00 0.00 42 1019.2
20231205131505 76 23 2.0 6.0 0.00 0.00 0.00 42 1019.1
20231205131403 76 23 3.0 6.0 0.00 0.00 0.00 42 1019.1
20231205131302 76 24 2.0 6.0 0.00 0.00 0.00 42 1019.1
20231205131203 76 24 4.0 6.0 0.00 0.00 0.00 42 1019.1
20231205131103 76 16 4.0 8.0 0.00 0.00 0.00 42 1019.1
20231205130902 76 17 4.0 8.0 0.00 0.00 0.00 42 1019.1
20231205130703 76 12 3.0 8.0 0.00 0.00 0.00 41 1019.1
20231205130603 76 12 3.0 8.0 0.00 0.00 0.00 41 1019.1
20231205130504 76 11 4.0 8.0 0.00 0.00 0.00 41 1019.1
20231205130402 77 11 4.0 8.0 0.00 0.00 0.00 41 1019.1
20231205130304 77 13 4.0 8.0 0.00 0.00 0.00 41 1019.1
20231205130204 77 17 4.0 8.0 0.00 0.00 0.00 40 1019.1
20231205130102 77 14 5.0 8.0 0.00 0.00 0.00 39 1019.1
20231205130014 77 13 4.0 8.0 0.00 0.00 0.00 39 1019.1
20231205125903 77 15 5.0 8.0 0.00 0.00 0.00 38 1019.1
20231205125805 77 13 4.0 10.0 0.00 0.00 0.00 38 1019.1
20231205125305 77 13 5.0 10.0 0.00 0.00 0.00 38 1019.1
20231205125202 77 15 4.0 10.0 0.00 0.00 0.00 37 1019.1
20231205125005 77 5 5.0 10.0 0.00 0.00 0.00 37 1019.0
20231205124903 78 5 4.0 8.0 0.00 0.00 0.00 36 1019.1
20231205124802 78 360 6.0 8.0 0.00 0.00 0.00 36 1019.1
20231205124703 78 11 3.0 7.0 0.00 0.00 0.00 36 1019.0
20231205124604 78 13 3.0 6.0 0.00 0.00 0.00 37 1019.1
20231205124504 78 18 3.0 6.0 0.00 0.00 0.00 37 1019.1
20231205124303 78 13 5.0 6.0 0.00 0.00 0.00 36 1019.1
20231205124202 78 14 4.0 7.0 0.00 0.00 0.00 36 1019.1
20231205124103 78 16 4.0 6.0 0.00 0.00 0.00 37 1019.1
20231205124005 78 17 4.0 8.0 0.00 0.00 0.00 37 1019.1
20231205123902 78 17 3.0 8.0 0.00 0.00 0.00 37 1019.1
20231205123803 78 16 4.0 8.0 0.00 0.00 0.00 36 1019.1
20231205123702 78 9 3.0 8.0 0.00 0.00 0.00 36 1019.1
20231205123504 78 9 3.0 8.0 0.00 0.00 0.00 35 1019.1
20231205123402 78 5 3.0 8.0 0.00 0.00 0.00 35 1019.1
20231205123302 78 5 3.0 8.0 0.00 0.00 0.00 34 1019.1
20231205123202 78 5 4.0 8.0 0.00 0.00 0.00 35 1019.2
20231205123104 79 26 5.0 8.0 0.00 0.00 0.00 34 1019.1
20231205123006 79 355 6.0 8.0 0.00 0.00 0.00 34 1019.1
20231205122903 79 355 3.0 6.0 0.00 0.00 0.00 34 1019.1
20231205122803 79 348 3.0 6.0 0.00 0.00 0.00 33 1019.1
20231205122702 78 346 4.0 6.0 0.00 0.00 0.00 34 1019.1
20231205122603 78 5 2.0 9.0 0.00 0.00 0.00 34 1019.1
20231205122505 78 5 4.0 11.0 0.00 0.00 0.00 34 1019.1
20231205122403 78 5 3.0 11.0 0.00 0.00 0.00 34 1019.1
20231205122305 78 5 4.0 11.0 0.00 0.00 0.00 34 1019.1
20231205122202 78 5 3.0 11.0 0.00 0.00 0.00 34 1019.0
20231205122103 78 5 2.0 11.0 0.00 0.00 0.00 34 1019.1
20231205122005 78 360 1.0 11.0 0.00 0.00 0.00 33 1019.0
20231205121903 78 360 3.0 11.0 0.00 0.00 0.00 33 1019.0
20231205121803 78 5 4.0 11.0 0.00 0.00 0.00 33 1019.0
20231205121702 78 327 10.0 11.0 0.00 0.00 0.00 33 1019.0
20231205121602 78 344 10.0 11.0 0.00 0.00 0.00 33 1018.9
20231205121505 78 333 5.0 11.0 0.00 0.00 0.00 35 1019.0
20231205121403 78 329 3.0 9.0 0.00 0.00 0.00 35 1019.0
20231205121302 78 16 5.0 9.0 0.00 0.00 0.00 35 1019.0
20231205121203 78 355 4.0 10.0 0.00 0.00 0.00 35 1019.0
20231205121006 78 355 4.0 10.0 0.00 0.00 0.00 34 1019.1
20231205120902 78 341 3.0 11.0 0.00 0.00 0.00 34 1019.0
20231205120802 78 339 4.0 11.0 0.00 0.00 0.00 34 1019.0
20231205120703 78 355 3.0 11.0 0.00 0.00 0.00 34 1019.0
20231205120604 78 345 9.0 11.0 0.00 0.00 0.00 34 1018.9
20231205120505 78 360 4.0 11.0 0.00 0.00 0.00 33 1018.9
20231205120202 78 355 8.0 11.0 0.00 0.00 0.00 34 1018.9
20231205120102 78 9 4.0 12.0 0.00 0.00 0.00 35 1019.0
20231205120005 78 11 3.0 12.0 0.00 0.00 0.00 35 1019.0
20231205115801 78 11 7.0 12.0 0.00 0.00 0.00 34 1018.9
20231205115702 78 19 7.0 12.0 0.00 0.00 0.00 33 1019.0
20231205115602 78 360 5.0 12.0 0.00 0.00 0.00 33 1019.0
20231205115504 78 346 8.0 13.0 0.00 0.00 0.00 33 1018.9
20231205115401 78 11 4.0 13.0 0.00 0.00 0.00 33 1018.9
20231205115305 78 355 11.0 13.0 0.00 0.00 0.00 32 1018.9
20231205115202 78 342 6.0 13.0 0.00 0.00 0.00 33 1019.0
20231205115101 78 5 5.0 13.0 0.00 0.00 0.00 33 1019.0
20231205114902 78 26 3.0 13.0 0.00 0.00 0.00 33 1018.9
20231205114802 78 360 5.0 13.0 0.00 0.00 0.00 33 1019.0
20231205114704 78 360 8.0 13.0 0.00 0.00 0.00 33 1018.9
20231205114602 78 349 5.0 13.0 0.00 0.00 0.00 33 1019.0
20231205114503 78 355 8.0 13.0 0.00 0.00 0.00 33 1018.9
20231205114102 78 355 6.0 13.0 0.00 0.00 0.00 33 1019.0
20231205113902 78 355 5.0 13.0 0.00 0.00 0.00 34 1019.0
20231205113802 78 360 6.0 14.0 0.00 0.00 0.00 34 1019.0
20231205113703 78 343 10.0 14.0 0.00 0.00 0.00 34 1018.9
20231205113602 78 321 3.0 14.0 0.00 0.00 0.00 34 1018.9
20231205113503 78 318 4.0 14.0 0.00 0.00 0.00 33 1018.9
20231205113402 78 327 6.0 14.0 0.00 0.00 0.00 34 1019.0
20231205113301 78 349 3.0 14.0 0.00 0.00 0.00 34 1018.9
20231205113202 78 346 9.0 14.0 0.00 0.00 0.00 34 1019.0
20231205113101 78 325 8.0 14.0 0.00 0.00 0.00 34 1019.0
20231205113005 78 323 11.0 14.0 0.00 0.00 0.00 34 1019.0
20231205112903 78 312 5.0 11.0 0.00 0.00 0.00 34 1019.0
20231205112802 78 339 9.0 11.0 0.00 0.00 0.00 34 1019.0
20231205112701 78 342 3.0 13.0 0.00 0.00 0.00 34 1019.0
20231205112603 78 304 7.0 13.0 0.00 0.00 0.00 34 1019.0
20231205112503 78 311 10.0 13.0 0.00 0.00 0.00 34 1019.0
20231205112402 78 340 4.0 13.0 0.00 0.00 0.00 34 1019.1
20231205112202 78 355 4.0 13.0 0.00 0.00 0.00 34 1019.0
20231205112102 78 342 4.0 13.0 0.00 0.00 0.00 34 1019.1
20231205112005 78 312 6.0 13.0 0.00 0.00 0.00 34 1019.0
20231205111803 78 312 9.0 13.0 0.00 0.00 0.00 34 1019.1
20231205111702 78 327 4.0 13.0 0.00 0.00 0.00 34 1019.1
20231205111602 78 334 11.0 13.0 0.00 0.00 0.00 34 1019.1
20231205111505 78 313 4.0 13.0 0.00 0.00 0.00 34 1019.1
20231205111404 78 323 10.0 13.0 0.00 0.00 0.00 35 1019.0
20231205111201 78 336 5.0 13.0 0.00 0.00 0.00 35 1019.0
20231205111102 78 329 8.0 13.0 0.00 0.00 0.00 35 1019.0
20231205111005 78 329 6.0 13.0 0.00 0.00 0.00 35 1019.1
20231205110903 78 350 9.0 13.0 0.00 0.00 0.00 35 1018.9
20231205110802 78 326 12.0 13.0 0.00 0.00 0.00 35 1019.0
20231205110703 77 355 9.0 12.0 0.00 0.00 0.00 35 1019.1
20231205110603 77 348 6.0 12.0 0.00 0.00 0.00 36 1018.9
20231205110504 77 340 8.0 12.0 0.00 0.00 0.00 37 1019.0
20231205110403 77 348 4.0 12.0 0.00 0.00 0.00 36 1019.0
20231205110302 77 348 2.0 12.0 0.00 0.00 0.00 36 1019.0
20231205110202 77 346 8.0 12.0 0.00 0.00 0.00 37 1019.0
20231205110102 77 23 3.0 12.0 0.00 0.00 0.00 37 1019.0
20231205110008 77 18 5.0 11.0 0.00 0.00 0.00 37 1019.0
20231205105801 77 10 7.0 12.0 0.00 0.00 0.00 38 1018.9
20231205105702 77 18 5.0 12.0 0.00 0.00 0.00 38 1018.9
20231205105602 77 350 6.0 12.0 0.00 0.00 0.00 38 1019.0
20231205105504 77 360 3.0 12.0 0.00 0.00 0.00 38 1019.0
20231205105401 76 347 5.0 12.0 0.00 0.00 0.00 38 1019.0
20231205105305 76 355 8.0 12.0 0.00 0.00 0.00 38 1019.0
20231205105005 77 17 7.0 12.0 0.00 0.00 0.00 38 1019.0
20231205104701 77 9 7.0 14.0 0.00 0.00 0.00 37 1019.0
20231205104504 76 360 6.0 14.0 0.00 0.00 0.00 37 1018.9
20231205104401 76 32 8.0 14.0 0.00 0.00 0.00 37 1019.0
20231205104301 76 12 4.0 14.0 0.00 0.00 0.00 37 1019.1
20231205104202 76 355 12.0 14.0 0.00 0.00 0.00 37 1019.0
20231205104101 76 355 6.0 14.0 0.00 0.00 0.00 38 1019.1
20231205104005 76 5 11.0 14.0 0.00 0.00 0.00 39 1019.1
20231205103901 76 12 10.0 14.0 0.00 0.00 0.00 38 1019.1
20231205103802 76 13 11.0 14.0 0.00 0.00 0.00 38 1019.1
20231205103702 76 11 4.0 14.0 0.00 0.00 0.00 37 1019.0
20231205103603 76 360 8.0 14.0 0.00 0.00 0.00 37 1019.1
20231205103504 76 355 6.0 13.0 0.00 0.00 0.00 37 1019.1
20231205103302 76 9 5.0 12.0 0.00 0.00 0.00 38 1019.2
20231205103202 76 13 7.0 12.0 0.00 0.00 0.00 39 1019.2
20231205103102 76 14 8.0 12.0 0.00 0.00 0.00 39 1019.1
20231205103006 76 5 6.0 12.0 0.00 0.00 0.00 38 1019.1
20231205102903 76 25 9.0 13.0 0.00 0.00 0.00 38 1019.1
20231205102701 76 15 7.0 14.0 0.00 0.00 0.00 38 1019.1
20231205102603 76 5 9.0 14.0 0.00 0.00 0.00 38 1019.1
20231205102503 76 5 9.0 14.0 0.00 0.00 0.00 39 1019.2
20231205102402 76 355 10.0 14.0 0.00 0.00 0.00 38 1019.2
20231205102301 76 360 11.0 14.0 0.00 0.00 0.00 40 1019.2
20231205102202 76 22 8.0 14.0 0.00 0.00 0.00 40 1019.2
20231205102101 76 11 8.0 14.0 0.00 0.00 0.00 40 1019.3
20231205102004 76 12 10.0 14.0 0.00 0.00 0.00 40 1019.3
20231205101901 76 22 9.0 14.0 0.00 0.00 0.00 39 1019.3
20231205101802 76 346 4.0 14.0 0.00 0.00 0.00 40 1019.3
20231205101701 76 24 6.0 14.0 0.00 0.00 0.00 40 1019.3
20231205101602 76 26 10.0 14.0 0.00 0.00 0.00 40 1019.3
20231205101403 76 16 11.0 14.0 0.00 0.00 0.00 39 1019.2
20231205101301 76 360 13.0 14.0 0.00 0.00 0.00 39 1019.4
20231205101201 76 17 9.0 11.0 0.00 0.00 0.00 39 1019.3
20231205101103 77 355 8.0 11.0 0.00 0.00 0.00 39 1019.3
20231205101005 77 22 4.0 11.0 0.00 0.00 0.00 39 1019.3
20231205100901 77 5 8.0 9.0 0.00 0.00 0.00 39 1019.3
20231205100702 77 32 6.0 9.0 0.00 0.00 0.00 38 1019.4
20231205100602 77 311 6.0 9.0 0.00 0.00 0.00 36 1019.3
20231205100504 77 355 5.0 11.0 0.00 0.00 0.00 37 1019.4
20231205100401 77 360 4.0 11.0 0.00 0.00 0.00 37 1019.4
20231205100302 77 44 4.0 11.0 0.00 0.00 0.00 37 1019.4
20231205100202 77 329 6.0 11.0 0.00 0.00 0.00 37 1019.5
20231205100103 77 325 6.0 11.0 0.00 0.00 0.00 36 1019.5
20231205100007 77 323 4.0 11.0 0.00 0.00 0.00 37 1019.5
20231205095702 77 293 11.0 11.0 0.00 0.00 0.00 37 1019.5
20231205095604 77 312 4.0 10.0 0.00 0.00 0.00 37 1019.5
20231205095505 77 5 5.0 10.0 0.00 0.00 0.00 38 1019.5
20231205095403 77 320 5.0 10.0 0.00 0.00 0.00 38 1019.5
20231205095306 77 344 9.0 10.0 0.00 0.00 0.00 38 1019.6
20231205095203 76 313 9.0 10.0 0.00 0.00 0.00 38 1019.6
20231205095105 76 279 7.0 12.0 0.00 0.00 0.00 38 1019.6
20231205095006 76 344 1.0 12.0 0.00 0.00 0.00 38 1019.6
20231205094904 76 304 4.0 12.0 0.00 0.00 0.00 38 1019.6
20231205094804 76 294 9.0 12.0 0.00 0.00 0.00 39 1019.7
20231205094604 76 306 2.0 12.0 0.00 0.00 0.00 38 1019.6
20231205094404 76 346 5.0 12.0 0.00 0.00 0.00 38 1019.7
20231205094303 76 317 4.0 12.0 0.00 0.00 0.00 39 1019.7
20231205094102 76 349 8.0 12.0 0.00 0.00 0.00 39 1019.8
20231205094005 76 339 8.0 12.0 0.00 0.00 0.00 38 1019.8
20231205093904 76 331 10.0 12.0 0.00 0.00 0.00 39 1019.7
20231205093803 76 275 10.0 12.0 0.00 0.00 0.00 39 1019.8
20231205093702 76 320 6.0 12.0 0.00 0.00 0.00 39 1019.8
20231205093604 76 315 11.0 14.0 0.00 0.00 0.00 39 1019.9
20231205093506 76 265 9.0 14.0 0.00 0.00 0.00 39 1019.9
20231205093403 76 298 5.0 14.0 0.00 0.00 0.00 39 1019.8
20231205093303 75 355 5.0 14.0 0.00 0.00 0.00 39 1019.9
20231205093203 75 302 2.0 14.0 0.00 0.00 0.00 39 1019.9
20231205093104 75 340 6.0 14.0 0.00 0.00 0.00 39 1019.9
20231205093006 75 298 9.0 14.0 0.00 0.00 0.00 40 1019.9
20231205092902 75 300 12.0 14.0 0.00 0.00 0.00 40 1019.9
20231205092802 75 296 9.0 11.0 0.00 0.00 0.00 40 1019.8
20231205092704 75 308 5.0 11.0 0.00 0.00 0.00 40 1019.9
20231205092602 75 283 9.0 11.0 0.00 0.00 0.00 40 1019.9
20231205092504 75 298 8.0 11.0 0.00 0.00 0.00 40 1019.9
20231205092403 75 281 10.0 11.0 0.00 0.00 0.00 41 1019.9
20231205092305 75 295 5.0 11.0 0.00 0.00 0.00 41 1020.0
20231205092103 75 349 6.0 14.0 0.00 0.00 0.00 41 1020.0
20231205092006 75 313 10.0 14.0 0.00 0.00 0.00 41 1019.9
20231205091904 75 345 3.0 14.0 0.00 0.00 0.00 40 1020.0
20231205091802 74 347 2.0 14.0 0.00 0.00 0.00 40 1020.0
20231205091703 74 348 4.0 14.0 0.00 0.00 0.00 40 1020.0
20231205091603 74 5 6.0 14.0 0.00 0.00 0.00 41 1020.0
20231205091403 74 316 9.0 14.0 0.00 0.00 0.00 41 1020.0
20231205091303 74 319 8.0 13.0 0.00 0.00 0.00 42 1020.0
20231205091203 74 346 9.0 13.0 0.00 0.00 0.00 42 1020.1
20231205091103 74 5 8.0 13.0 0.00 0.00 0.00 42 1020.1
20231205091005 74 335 8.0 13.0 0.00 0.00 0.00 42 1020.2
20231205090901 74 333 9.0 13.0 0.00 0.00 0.00 42 1020.3
20231205090802 74 342 4.0 13.0 0.00 0.00 0.00 42 1020.3
20231205090702 74 333 8.0 13.0 0.00 0.00 0.00 42 1020.3
20231205090602 74 322 10.0 13.0 0.00 0.00 0.00 42 1020.3
20231205090504 74 313 5.0 12.0 0.00 0.00 0.00 42 1020.3
20231205090403 74 324 8.0 13.0 0.00 0.00 0.00 42 1020.3
20231205090303 74 323 6.0 13.0 0.00 0.00 0.00 43 1020.4
20231205090202 74 302 4.0 13.0 0.00 0.00 0.00 43 1020.4
20231205090102 74 343 3.0 14.0 0.00 0.00 0.00 43 1020.4
20231205085902 74 288 8.0 14.0 0.00 0.00 0.00 44 1020.4
20231205085802 73 319 2.0 14.0 0.00 0.00 0.00 43 1020.4
20231205085702 73 297 9.0 14.0 0.00 0.00 0.00 43 1020.4
20231205085602 73 325 11.0 14.0 0.00 0.00 0.00 43 1020.4
20231205085504 73 334 6.0 14.0 0.00 0.00 0.00 43 1020.4
20231205085305 73 305 9.0 12.0 0.00 0.00 0.00 43 1020.5
20231205085203 73 309 11.0 12.0 0.00 0.00 0.00 43 1020.5
20231205085104 73 298 3.0 12.0 0.00 0.00 0.00 43 1020.5
20231205085005 73 311 11.0 12.0 0.00 0.00 0.00 44 1020.5
20231205084902 73 309 3.0 12.0 0.00 0.00 0.00 44 1020.6
20231205084803 73 329 1.0 12.0 0.00 0.00 0.00 43 1020.5
20231205084703 73 355 10.0 12.0 0.00 0.00 0.00 43 1020.6
20231205084602 73 314 10.0 12.0 0.00 0.00 0.00 43 1020.7
20231205084504 73 338 10.0 12.0 0.00 0.00 0.00 44 1020.7
20231205084402 73 330 8.0 14.0 0.00 0.00 0.00 44 1020.7
20231205084304 73 306 7.0 17.0 0.00 0.00 0.00 44 1020.7
20231205084203 73 304 9.0 17.0 0.00 0.00 0.00 44 1020.7
20231205084103 72 292 9.0 17.0 0.00 0.00 0.00 44 1020.7
20231205084004 72 335 9.0 17.0 0.00 0.00 0.00 44 1020.8
20231205083903 72 321 5.0 17.0 0.00 0.00 0.00 44 1020.7
20231205083602 72 292 9.0 17.0 0.00 0.00 0.00 44 1020.9
20231205083401 72 287 4.0 17.0 0.00 0.00 0.00 45 1020.9
20231205083301 72 301 10.0 17.0 0.00 0.00 0.00 45 1021.0
20231205083201 72 295 12.0 17.0 0.00 0.00 0.00 45 1020.9
20231205083101 72 307 4.0 17.0 0.00 0.00 0.00 44 1020.9
20231205082902 72 306 11.0 15.0 0.00 0.00 0.00 45 1021.0
20231205082803 72 348 2.0 15.0 0.00 0.00 0.00 45 1021.0
20231205082702 72 312 12.0 15.0 0.00 0.00 0.00 45 1021.0
20231205082603 72 298 11.0 15.0 0.00 0.00 0.00 45 1021.0
20231205082504 72 304 9.0 14.0 0.00 0.00 0.00 45 1021.0
20231205082402 72 292 8.0 14.0 0.00 0.00 0.00 45 1020.9
20231205082301 72 298 10.0 14.0 0.00 0.00 0.00 45 1021.0
20231205082203 72 318 4.0 14.0 0.00 0.00 0.00 45 1021.0
20231205082102 72 288 4.0 14.0 0.00 0.00 0.00 45 1021.0
20231205082005 72 300 10.0 15.0 0.00 0.00 0.00 44 1021.1
20231205081903 72 300 9.0 15.0 0.00 0.00 0.00 45 1021.0
20231205081802 72 309 4.0 15.0 0.00 0.00 0.00 45 1021.0
20231205081701 72 315 9.0 15.0 0.00 0.00 0.00 45 1021.0
20231205081601 72 344 8.0 15.0 0.00 0.00 0.00 45 1021.1
20231205081503 72 304 8.0 15.0 0.00 0.00 0.00 45 1021.1
20231205081403 72 290 11.0 15.0 0.00 0.00 0.00 45 1021.0
20231205081301 72 298 8.0 15.0 0.00 0.00 0.00 45 1021.1
20231205081201 72 276 4.0 15.0 0.00 0.00 0.00 45 1021.2
20231205081003 71 281 8.0 15.0 0.00 0.00 0.00 45 1021.1
20231205080901 71 331 10.0 15.0 0.00 0.00 0.00 45 1021.2
20231205080802 72 295 13.0 15.0 0.00 0.00 0.00 45 1021.2
20231205080703 71 325 8.0 13.0 0.00 0.00 0.00 45 1021.2
20231205080603 71 323 4.0 13.0 0.00 0.00 0.00 45 1021.2
20231205080503 71 284 6.0 13.0 0.00 0.00 0.00 45 1021.2
20231205080402 71 306 9.0 13.0 0.00 0.00 0.00 45 1021.2
20231205080301 71 316 12.0 13.0 0.00 0.00 0.00 45 1021.3
20231205080202 71 310 9.0 13.0 0.00 0.00 0.00 45 1021.3
20231205080103 71 309 9.0 13.0 0.00 0.00 0.00 45 1021.3
20231205075903 71 338 10.0 13.0 0.00 0.00 0.00 46 1021.4
20231205075802 71 340 5.0 15.0 0.00 0.00 0.00 46 1021.5
20231205075601 71 331 6.0 15.0 0.00 0.00 0.00 46 1021.5
20231205075504 71 317 10.0 15.0 0.00 0.00 0.00 46 1021.5
20231205075402 71 281 11.0 15.0 0.00 0.00 0.00 46 1021.5
20231205075201 70 320 4.0 15.0 0.00 0.00 0.00 45 1021.6
20231205075102 70 297 11.0 15.0 0.00 0.00 0.00 45 1021.6
20231205075004 70 321 15.0 15.0 0.00 0.00 0.00 46 1021.6
20231205074902 70 300 11.0 15.0 0.00 0.00 0.00 46 1021.6
20231205074801 70 314 5.0 14.0 0.00 0.00 0.00 46 1021.7
20231205074702 70 311 6.0 14.0 0.00 0.00 0.00 46 1021.6
20231205074303 70 292 8.0 13.0 0.00 0.00 0.00 45 1021.7
20231205074203 70 320 9.0 13.0 0.00 0.00 0.00 46 1021.7
20231205074006 70 323 10.0 13.0 0.00 0.00 0.00 46 1021.7
20231205073901 70 324 8.0 13.0 0.00 0.00 0.00 46 1021.7
20231205073701 70 355 4.0 16.0 0.00 0.00 0.00 46 1021.7
20231205073602 70 304 8.0 16.0 0.00 0.00 0.00 46 1021.7
20231205073504 70 331 4.0 16.0 0.00 0.00 0.00 47 1021.7
20231205073403 70 286 10.0 16.0 0.00 0.00 0.00 47 1021.8
20231205073303 70 315 5.0 16.0 0.00 0.00 0.00 47 1021.7
20231205073201 70 324 3.0 16.0 0.00 0.00 0.00 47 1021.7
20231205073101 70 286 8.0 16.0 0.00 0.00 0.00 47 1021.8
20231205073005 70 322 10.0 16.0 0.00 0.00 0.00 47 1021.8
20231205072901 70 328 8.0 16.0 0.00 0.00 0.00 47 1021.8
20231205072802 70 303 9.0 13.0 0.00 0.00 0.00 47 1021.9
20231205072700 70 330 11.0 13.0 0.00 0.00 0.00 47 1021.9
20231205072602 70 302 10.0 13.0 0.00 0.00 0.00 47 1021.9
20231205072503 70 325 6.0 13.0 0.00 0.00 0.00 47 1021.9
20231205072305 70 288 8.0 13.0 0.00 0.00 0.00 47 1021.9
20231205072102 70 321 6.0 14.0 0.00 0.00 0.00 48 1022.0
20231205072005 70 283 12.0 14.0 0.00 0.00 0.00 49 1022.1
20231205071901 69 298 8.0 14.0 0.00 0.00 0.00 48 1022.1
20231205071801 69 333 4.0 14.0 0.00 0.00 0.00 48 1022.0
20231205071703 69 327 5.0 14.0 0.00 0.00 0.00 48 1022.0
20231205071602 69 327 5.0 14.0 0.00 0.00 0.00 48 1022.0
20231205071503 69 346 9.0 14.0 0.00 0.00 0.00 48 1022.0
20231205071401 69 323 10.0 14.0 0.00 0.00 0.00 48 1022.0
20231205071203 69 315 8.0 13.0 0.00 0.00 0.00 49 1021.9
20231205071102 69 325 3.0 13.0 0.00 0.00 0.00 49 1021.9
20231205071003 69 309 8.0 13.0 0.00 0.00 0.00 49 1022.0
20231205070901 69 311 4.0 13.0 0.00 0.00 0.00 49 1022.0
20231205070701 69 311 5.0 16.0 0.00 0.00 0.00 49 1022.0
20231205070603 69 319 6.0 16.0 0.00 0.00 0.00 49 1022.0
20231205070505 69 272 8.0 16.0 0.00 0.00 0.00 49 1022.0
20231205070403 69 313 3.0 16.0 0.00 0.00 0.00 49 1022.0
20231205070303 69 277 4.0 16.0 0.00 0.00 0.00 49 1022.0
20231205070201 69 272 4.0 16.0 0.00 0.00 0.00 49 1022.1
20231205070102 69 283 9.0 16.0 0.00 0.00 0.00 49 1022.1
20231205070006 69 287 11.0 16.0 0.00 0.00 0.00 49 1022.1
20231205065901 69 303 14.0 14.0 0.00 0.00 0.00 49 1022.1
20231205065802 69 288 10.0 14.0 0.00 0.00 0.00 49 1022.1
20231205065702 69 307 13.0 14.0 0.00 0.00 0.00 49 1022.1
20231205065602 68 293 7.0 14.0 0.00 0.00 0.00 49 1022.2
20231205065503 68 294 13.0 14.0 0.00 0.00 0.00 50 1022.2
20231205065403 68 289 11.0 14.0 0.00 0.00 0.00 50 1022.2
20231205065201 68 305 8.0 14.0 0.00 0.00 0.00 50 1022.3
20231205065102 68 305 9.0 14.0 0.00 0.00 0.00 49 1022.3
20231205064802 68 305 5.0 13.0 0.00 0.00 0.00 50 1022.2
20231205064704 68 334 6.0 13.0 0.00 0.00 0.00 50 1022.2
20231205064602 68 315 4.0 13.0 0.00 0.00 0.00 50 1022.2
20231205064503 68 302 11.0 13.0 0.00 0.00 0.00 50 1022.3
20231205064403 68 286 11.0 13.0 0.00 0.00 0.00 50 1022.3
20231205064302 68 313 5.0 13.0 0.00 0.00 0.00 50 1022.2
20231205064201 68 292 3.0 13.0 0.00 0.00 0.00 51 1022.3
20231205064005 68 335 13.0 13.0 0.00 0.00 0.00 51 1022.3
20231205063901 68 311 5.0 13.0 0.00 0.00 0.00 51 1022.3
20231205063602 68 286 8.0 13.0 0.00 0.00 0.00 51 1022.3
20231205063502 68 303 5.0 13.0 0.00 0.00 0.00 51 1022.3
20231205063303 67 328 10.0 13.0 0.00 0.00 0.00 51 1022.4
20231205063202 67 298 9.0 13.0 0.00 0.00 0.00 51 1022.4
20231205063101 67 292 11.0 13.0 0.00 0.00 0.00 51 1022.4
20231205063006 67 288 8.0 12.0 0.00 0.00 0.00 52 1022.4
20231205062902 67 302 7.0 12.0 0.00 0.00 0.00 51 1022.4
20231205062803 67 323 6.0 14.0 0.00 0.00 0.00 52 1022.4
20231205062703 67 297 5.0 15.0 0.00 0.00 0.00 52 1022.4
20231205062601 67 312 8.0 15.0 0.00 0.00 0.00 52 1022.4
20231205062401 67 309 7.0 15.0 0.00 0.00 0.00 52 1022.4
20231205062305 67 336 6.0 15.0 0.00 0.00 0.00 52 1022.5
20231205062103 67 317 6.0 15.0 0.00 0.00 0.00 52 1022.5
20231205062005 67 302 4.0 15.0 0.00 0.00 0.00 52 1022.5
20231205061901 67 315 12.0 15.0 0.00 0.00 0.00 52 1022.5
20231205061802 67 288 8.0 14.0 0.00 0.00 0.00 52 1022.5
20231205061603 67 273 3.0 14.0 0.00 0.00 0.00 53 1022.6
20231205061504 66 304 8.0 14.0 0.00 0.00 0.00 54 1022.5
20231205061403 66 307 8.0 15.0 0.00 0.00 0.00 54 1022.6
20231205061202 66 316 5.0 15.0 0.00 0.00 0.00 54 1022.6
20231205061102 66 305 9.0 15.0 0.00 0.00 0.00 54 1022.5
20231205061005 66 329 4.0 15.0 0.00 0.00 0.00 54 1022.6
20231205060901 66 263 3.0 15.0 0.00 0.00 0.00 54 1022.5
20231205060802 66 291 5.0 15.0 0.00 0.00 0.00 54 1022.6
20231205060702 66 291 9.0 15.0 0.00 0.00 0.00 54 1022.6
20231205060602 66 300 12.0 15.0 0.00 0.00 0.00 54 1022.6
20231205060503 66 286 6.0 13.0 0.00 0.00 0.00 55 1022.6
20231205060301 66 286 7.0 13.0 0.00 0.00 0.00 55 1022.6
20231205060201 66 300 4.0 13.0 0.00 0.00 0.00 55 1022.7
20231205060102 66 294 5.0 13.0 0.00 0.00 0.00 55 1022.7
20231205060005 66 329 8.0 13.0 0.00 0.00 0.00 55 1022.6
20231205055901 65 302 7.0 13.0 0.00 0.00 0.00 55 1022.6
20231205055801 65 299 4.0 13.0 0.00 0.00 0.00 55 1022.6
20231205055701 65 294 5.0 13.0 0.00 0.00 0.00 55 1022.6
20231205055601 65 292 7.0 13.0 0.00 0.00 0.00 55 1022.6
20231205055503 65 287 10.0 13.0 0.00 0.00 0.00 55 1022.6
20231205055401 65 302 7.0 14.0 0.00 0.00 0.00 55 1022.7
20231205055305 65 304 8.0 14.0 0.00 0.00 0.00 56 1022.7
20231205055201 65 321 6.0 14.0 0.00 0.00 0.00 56 1022.6
20231205055102 65 311 6.0 14.0 0.00 0.00 0.00 56 1022.6
20231205055008 65 286 13.0 14.0 0.00 0.00 0.00 56 1022.5
20231205054801 65 269 4.0 14.0 0.00 0.00 0.00 56 1022.5
20231205054702 65 300 5.0 14.0 0.00 0.00 0.00 56 1022.5
20231205054601 65 285 12.0 14.0 0.00 0.00 0.00 57 1022.5
20231205054504 65 288 4.0 14.0 0.00 0.00 0.00 57 1022.4
20231205054402 65 302 3.0 13.0 0.00 0.00 0.00 57 1022.4
20231205054302 65 295 5.0 13.0 0.00 0.00 0.00 57 1022.4
20231205054202 65 311 3.0 13.0 0.00 0.00 0.00 57 1022.5
20231205054102 64 306 11.0 12.0 0.00 0.00 0.00 57 1022.5
20231205054005 64 299 11.0 12.0 0.00 0.00 0.00 58 1022.5
20231205053901 64 336 6.0 12.0 0.00 0.00 0.00 58 1022.5
20231205053803 64 281 10.0 12.0 0.00 0.00 0.00 58 1022.5
20231205053701 64 315 9.0 11.0 0.00 0.00 0.00 58 1022.5
20231205053602 64 302 8.0 12.0 0.00 0.00 0.00 59 1022.5
20231205053503 64 286 7.0 12.0 0.00 0.00 0.00 59 1022.4
20231205053401 64 302 8.0 12.0 0.00 0.00 0.00 59 1022.4
20231205053301 64 302 10.0 12.0 0.00 0.00 0.00 59 1022.4
20231205053103 64 311 3.0 12.0 0.00 0.00 0.00 59 1022.3
20231205053004 64 314 3.0 12.0 0.00 0.00 0.00 59 1022.3
20231205052802 64 238 8.0 12.0 0.00 0.00 0.00 60 1022.3
20231205052701 63 296 8.0 11.0 0.00 0.00 0.00 60 1022.4
20231205052603 63 281 8.0 11.0 0.00 0.00 0.00 60 1022.4
20231205052503 63 302 4.0 11.0 0.00 0.00 0.00 60 1022.3
20231205052402 63 290 5.0 11.0 0.00 0.00 0.00 61 1022.3
20231205052305 63 302 4.0 10.0 0.00 0.00 0.00 61 1022.3
20231205052202 63 317 3.0 10.0 0.00 0.00 0.00 61 1022.2
20231205052004 63 320 8.0 10.0 0.00 0.00 0.00 60 1022.2
20231205051902 63 292 2.0 10.0 0.00 0.00 0.00 60 1022.1
20231205051802 63 297 4.0 10.0 0.00 0.00 0.00 61 1022.1
20231205051702 63 309 9.0 9.0 0.00 0.00 0.00 61 1022.2
20231205051503 62 302 5.0 9.0 0.00 0.00 0.00 61 1022.2
20231205051304 62 309 8.0 9.0 0.00 0.00 0.00 61 1022.1
20231205051201 62 312 5.0 9.0 0.00 0.00 0.00 61 1022.1
20231205051005 62 304 3.0 9.0 0.00 0.00 0.00 61 1022.1
20231205050901 62 305 1.0 9.0 0.00 0.00 0.00 61 1022.1
20231205050801 62 305 3.0 9.0 0.00 0.00 0.00 61 1022.1
20231205050602 62 303 5.0 9.0 0.00 0.00 0.00 61 1022.1
20231205050401 61 299 3.0 5.0 0.00 0.00 0.00 61 1022.0
20231205050301 61 303 1.0 5.0 0.00 0.00 0.00 61 1022.1
20231205050101 61 304 3.0 5.0 0.00 0.00 0.00 61 1022.1
20231205050004 61 305 1.0 5.0 0.00 0.00 0.00 61 1022.1
20231205045901 61 305 1.0 5.0 0.00 0.00 0.00 61 1022.1
20231205045702 60 303 2.0 5.0 0.00 0.00 0.00 62 1022.0
20231205045602 60 302 5.0 5.0 0.00 0.00 0.00 61 1022.0
20231205045503 60 301 2.0 5.0 0.00 0.00 0.00 61 1022.1
20231205045402 60 301 4.0 5.0 0.00 0.00 0.00 61 1022.0
20231205045201 60 266 2.0 6.0 0.00 0.00 0.00 61 1022.0
20231205045101 60 266 3.0 6.0 0.00 0.00 0.00 60 1022.0
20231205045004 59 264 3.0 6.0 0.00 0.00 0.00 60 1022.1
20231205044902 59 264 3.0 6.0 0.00 0.00 0.00 60 1022.1
20231205044702 59 259 4.0 6.0 0.00 0.00 0.00 61 1022.0
20231205044401 59 259 4.0 7.0 0.00 0.00 0.00 61 1022.1
20231205044301 59 259 4.0 7.0 0.00 0.00 0.00 61 1022.1
20231205044201 59 259 2.0 7.0 0.00 0.00 0.00 61 1022.1
20231205044004 59 259 2.0 7.0 0.00 0.00 0.00 61 1022.1
20231205043902 59 259 4.0 7.0 0.00 0.00 0.00 61 1022.1
20231205043702 59 261 6.0 7.0 0.00 0.00 0.00 61 1022.1
20231205043601 59 261 4.0 7.0 0.00 0.00 0.00 61 1022.0
20231205043401 59 260 6.0 7.0 0.00 0.00 0.00 61 1022.0
20231205043302 59 259 7.0 7.0 0.00 0.00 0.00 61 1022.1
20231205043201 59 259 6.0 7.0 0.00 0.00 0.00 61 1022.0
20231205043101 59 262 7.0 7.0 0.00 0.00 0.00 61 1022.0
20231205042901 59 262 6.0 8.0 0.00 0.00 0.00 61 1022.0
20231205042702 59 262 4.0 8.0 0.00 0.00 0.00 61 1022.0
20231205042402 59 263 3.0 8.0 0.00 0.00 0.00 61 1022.0
20231205042203 59 263 6.0 8.0 0.00 0.00 0.00 61 1021.9
20231205042102 59 268 4.0 8.0 0.00 0.00 0.00 61 1022.0
20231205042004 59 266 3.0 8.0 0.00 0.00 0.00 61 1022.0
20231205041903 59 274 4.0 8.0 0.00 0.00 0.00 61 1022.0
20231205041803 59 274 4.0 8.0 0.00 0.00 0.00 61 1022.0
20231205041702 59 275 2.0 8.0 0.00 0.00 0.00 61 1022.0
20231205041602 59 275 4.0 8.0 0.00 0.00 0.00 61 1022.0
20231205041504 59 278 6.0 7.0 0.00 0.00 0.00 61 1021.9
20231205041301 60 282 6.0 8.0 0.00 0.00 0.00 62 1022.0
20231205041201 60 266 3.0 8.0 0.00 0.00 0.00 62 1022.0
20231205041101 60 268 6.0 8.0 0.00 0.00 0.00 62 1021.9
20231205041003 60 275 4.0 9.0 0.00 0.00 0.00 62 1022.0
20231205040901 60 295 3.0 9.0 0.00 0.00 0.00 63 1022.0
20231205040802 60 295 4.0 9.0 0.00 0.00 0.00 63 1021.9
20231205040701 60 300 2.0 9.0 0.00 0.00 0.00 63 1022.0
20231205040602 60 302 3.0 9.0 0.00 0.00 0.00 63 1022.0
20231205040201 60 296 5.0 9.0 0.00 0.00 0.00 63 1021.9
20231205040102 60 294 4.0 8.0 0.00 0.00 0.00 63 1021.9
20231205040004 60 285 6.0 8.0 0.00 0.00 0.00 63 1021.9
20231205035901 60 281 3.0 8.0 0.00 0.00 0.00 63 1021.8
20231205035701 60 292 4.0 8.0 0.00 0.00 0.00 63 1021.8
20231205035601 60 291 3.0 8.0 0.00 0.00 0.00 63 1021.9
20231205035504 60 290 3.0 8.0 0.00 0.00 0.00 63 1021.8
20231205035403 60 287 5.0 8.0 0.00 0.00 0.00 63 1021.9
20231205035301 60 288 5.0 8.0 0.00 0.00 0.00 63 1021.8
20231205035202 60 288 3.0 8.0 0.00 0.00 0.00 63 1021.8
20231205035101 60 274 2.0 8.0 0.00 0.00 0.00 63 1021.8
20231205035003 60 294 8.0 8.0 0.00 0.00 0.00 63 1021.8
20231205034802 60 302 3.0 8.0 0.00 0.00 0.00 63 1021.8
20231205034701 60 304 4.0 8.0 0.00 0.00 0.00 63 1021.8
20231205034601 60 285 3.0 8.0 0.00 0.00 0.00 63 1021.8
20231205034504 60 284 2.0 8.0 0.00 0.00 0.00 63 1021.8
20231205034400 60 284 2.0 8.0 0.00 0.00 0.00 63 1021.8
20231205034302 60 288 3.0 8.0 0.00 0.00 0.00 63 1021.7
20231205034202 60 286 6.0 8.0 0.00 0.00 0.00 63 1021.8
20231205034101 60 290 7.0 7.0 0.00 0.00 0.00 63 1021.8
20231205034003 60 297 3.0 7.0 0.00 0.00 0.00 63 1021.7
20231205033901 60 296 4.0 7.0 0.00 0.00 0.00 63 1021.7
20231205033801 60 296 3.0 7.0 0.00 0.00 0.00 63 1021.7
20231205033502 60 290 4.0 7.0 0.00 0.00 0.00 62 1021.7
20231205033401 60 291 3.0 7.0 0.00 0.00 0.00 62 1021.7
20231205033302 60 291 2.0 7.0 0.00 0.00 0.00 62 1021.7
20231205033102 60 292 5.0 7.0 0.00 0.00 0.00 62 1021.7
20231205033005 60 290 5.0 7.0 0.00 0.00 0.00 62 1021.6
20231205032902 60 290 5.0 8.0 0.00 0.00 0.00 62 1021.6
20231205032802 60 290 4.0 8.0 0.00 0.00 0.00 62 1021.6
20231205032600 60 293 3.0 8.0 0.00 0.00 0.00 62 1021.6
20231205032503 60 288 2.0 8.0 0.00 0.00 0.00 62 1021.6
20231205032402 60 288 3.0 8.0 0.00 0.00 0.00 62 1021.6
20231205032301 60 292 3.0 8.0 0.00 0.00 0.00 62 1021.6
20231205032201 60 291 4.0 8.0 0.00 0.00 0.00 62 1021.5
20231205032103 60 291 5.0 8.0 0.00 0.00 0.00 62 1021.6
20231205032004 60 293 3.0 7.0 0.00 0.00 0.00 62 1021.6
20231205031901 60 292 3.0 7.0 0.00 0.00 0.00 62 1021.6
20231205031801 60 293 3.0 7.0 0.00 0.00 0.00 62 1021.6
20231205031700 60 292 3.0 7.0 0.00 0.00 0.00 62 1021.6
20231205031601 60 290 4.0 7.0 0.00 0.00 0.00 62 1021.6
20231205031504 60 286 4.0 7.0 0.00 0.00 0.00 62 1021.5
20231205031301 60 285 3.0 7.0 0.00 0.00 0.00 62 1021.5
20231205031102 60 284 4.0 5.0 0.00 0.00 0.00 62 1021.5
20231205030802 60 284 2.0 5.0 0.00 0.00 0.00 62 1021.5
20231205030602 60 284 4.0 5.0 0.00 0.00 0.00 62 1021.4
20231205030503 60 284 3.0 5.0 0.00 0.00 0.00 62 1021.5
20231205030301 60 283 3.0 6.0 0.00 0.00 0.00 62 1021.5
20231205030202 60 284 6.0 6.0 0.00 0.00 0.00 61 1021.5
20231205030102 60 284 2.0 5.0 0.00 0.00 0.00 62 1021.5
20231205030004 60 284 6.0 6.0 0.00 0.00 0.00 61 1021.5
20231205025901 60 284 4.0 5.0 0.00 0.00 0.00 61 1021.5
20231205025801 60 284 2.0 5.0 0.00 0.00 0.00 61 1021.5
20231205025701 60 284 4.0 5.0 0.00 0.00 0.00 61 1021.5
20231205025601 60 284 3.0 5.0 0.00 0.00 0.00 61 1021.4
20231205025502 60 283 3.0 5.0 0.00 0.00 0.00 61 1021.4
20231205025403 60 284 2.0 5.0 0.00 0.00 0.00 61 1021.4
20231205025305 60 284 3.0 5.0 0.00 0.00 0.00 61 1021.4
20231205025201 60 284 2.0 7.0 0.00 0.00 0.00 61 1021.4
20231205025102 60 284 3.0 7.0 0.00 0.00 0.00 61 1021.5
20231205024900 60 285 2.0 7.0 0.00 0.00 0.00 61 1021.4
20231205024801 60 285 3.0 8.0 0.00 0.00 0.00 61 1021.4
20231205024701 60 285 3.0 8.0 0.00 0.00 0.00 61 1021.4
20231205024601 60 286 4.0 8.0 0.00 0.00 0.00 61 1021.4
20231205024502 60 285 3.0 8.0 0.00 0.00 0.00 61 1021.4
20231205024401 60 285 3.0 8.0 0.00 0.00 0.00 61 1021.4
20231205024302 60 284 6.0 8.0 0.00 0.00 0.00 61 1021.4
20231205024202 60 284 7.0 8.0 0.00 0.00 0.00 61 1021.4
20231205024102 60 284 6.0 8.0 0.00 0.00 0.00 61 1021.3
20231205024004 60 288 3.0 8.0 0.00 0.00 0.00 61 1021.4
20231205023901 60 286 2.0 10.0 0.00 0.00 0.00 61 1021.3
20231205023802 60 290 5.0 10.0 0.00 0.00 0.00 61 1021.3
20231205023702 60 293 3.0 10.0 0.00 0.00 0.00 61 1021.3
20231205023601 60 292 4.0 10.0 0.00 0.00 0.00 61 1021.4
20231205023300 60 287 5.0 10.0 0.00 0.00 0.00 61 1021.4
20231205023201 60 287 3.0 10.0 0.00 0.00 0.00 61 1021.4
20231205023103 60 268 4.0 10.0 0.00 0.00 0.00 61 1021.4
20231205023002 60 279 10.0 10.0 0.00 0.00 0.00 61 1021.4
20231205022901 60 295 7.0 8.0 0.00 0.00 0.00 61 1021.4
20231205022801 60 292 3.0 8.0 0.00 0.00 0.00 61 1021.5
20231205022702 60 295 5.0 8.0 0.00 0.00 0.00 61 1021.4
20231205022603 60 275 6.0 8.0 0.00 0.00 0.00 61 1021.4
20231205022503 60 291 4.0 8.0 0.00 0.00 0.00 61 1021.4
20231205022401 60 298 4.0 8.0 0.00 0.00 0.00 61 1021.4
20231205022102 60 296 7.0 8.0 0.00 0.00 0.00 60 1021.3
20231205022003 60 290 5.0 8.0 0.00 0.00 0.00 60 1021.3
20231205021902 60 269 4.0 8.0 0.00 0.00 0.00 60 1021.3
20231205021702 60 280 2.0 8.0 0.00 0.00 0.00 60 1021.3
20231205021601 60 279 3.0 8.0 0.00 0.00 0.00 60 1021.3
20231205021502 60 281 7.0 9.0 0.00 0.00 0.00 60 1021.4
20231205021402 60 297 3.0 10.0 0.00 0.00 0.00 60 1021.3
20231205021301 60 293 2.0 10.0 0.00 0.00 0.00 60 1021.3
20231205021200 60 296 7.0 10.0 0.00 0.00 0.00 60 1021.3
20231205021101 60 300 4.0 10.0 0.00 0.00 0.00 60 1021.3
20231205020602 60 292 7.0 10.0 0.00 0.00 0.00 60 1021.3
20231205020502 60 275 7.0 10.0 0.00 0.00 0.00 60 1021.3
20231205020402 60 281 7.0 10.0 0.00 0.00 0.00 59 1021.3
20231205020302 60 306 8.0 10.0 0.00 0.00 0.00 60 1021.3
20231205020101 61 286 3.0 10.0 0.00 0.00 0.00 59 1021.3
20231205020006 61 302 5.0 10.0 0.00 0.00 0.00 59 1021.3
20231205015801 61 279 7.0 10.0 0.00 0.00 0.00 59 1021.3
20231205015701 61 290 5.0 9.0 0.00 0.00 0.00 59 1021.2
20231205015602 61 281 7.0 9.0 0.00 0.00 0.00 59 1021.2
20231205015502 61 286 6.0 9.0 0.00 0.00 0.00 59 1021.1
20231205015401 61 297 4.0 9.0 0.00 0.00 0.00 59 1021.1
20231205015101 61 279 4.0 9.0 0.00 0.00 0.00 59 1021.1
20231205015004 61 290 4.0 8.0 0.00 0.00 0.00 59 1021.1
20231205014902 61 283 3.0 9.0 0.00 0.00 0.00 59 1021.2
20231205014801 61 275 7.0 9.0 0.00 0.00 0.00 58 1021.1
20231205014701 61 286 8.0 9.0 0.00 0.00 0.00 58 1021.1
20231205014601 61 305 2.0 9.0 0.00 0.00 0.00 58 1021.1
20231205014202 61 305 4.0 9.0 0.00 0.00 0.00 58 1021.1
20231205014101 61 301 5.0 9.0 0.00 0.00 0.00 58 1021.1
20231205014003 61 302 4.0 9.0 0.00 0.00 0.00 58 1021.1
20231205013902 61 321 4.0 9.0 0.00 0.00 0.00 58 1021.1
20231205013801 61 300 3.0 9.0 0.00 0.00 0.00 58 1021.1
20231205013702 61 286 6.0 9.0 0.00 0.00 0.00 58 1021.1
20231205013502 61 295 3.0 10.0 0.00 0.00 0.00 58 1021.2
20231205013401 61 294 5.0 10.0 0.00 0.00 0.00 58 1021.2
20231205013302 61 294 3.0 11.0 0.00 0.00 0.00 58 1021.1
20231205013203 61 303 4.0 11.0 0.00 0.00 0.00 58 1021.1
20231205013101 61 300 3.0 11.0 0.00 0.00 0.00 57 1021.1
20231205013004 61 292 3.0 11.0 0.00 0.00 0.00 57 1021.1
20231205012901 61 300 4.0 11.0 0.00 0.00 0.00 57 1021.1
20231205012801 61 275 1.0 11.0 0.00 0.00 0.00 57 1021.2
20231205012701 61 284 7.0 11.0 0.00 0.00 0.00 57 1021.1
20231205012601 61 305 3.0 11.0 0.00 0.00 0.00 57 1021.2
20231205012504 61 289 4.0 11.0 0.00 0.00 0.00 57 1021.2
20231205012401 61 296 5.0 9.0 0.00 0.00 0.00 57 1021.1
20231205012302 61 300 4.0 9.0 0.00 0.00 0.00 57 1021.1
20231205012101 61 298 4.0 9.0 0.00 0.00 0.00 57 1021.1
20231205011901 61 308 5.0 9.0 0.00 0.00 0.00 56 1021.1
20231205011802 61 309 5.0 9.0 0.00 0.00 0.00 56 1021.1
20231205011602 61 312 5.0 10.0 0.00 0.00 0.00 56 1021.1
20231205011502 61 306 5.0 10.0 0.00 0.00 0.00 56 1021.2
20231205011401 61 302 2.0 10.0 0.00 0.00 0.00 56 1021.2
20231205011201 61 301 4.0 10.0 0.00 0.00 0.00 56 1021.2
20231205011102 61 296 3.0 10.0 0.00 0.00 0.00 56 1021.1
20231205011003 61 305 3.0 10.0 0.00 0.00 0.00 56 1021.1
20231205010901 61 293 7.0 10.0 0.00 0.00 0.00 56 1021.1
20231205010802 61 298 7.0 9.0 0.00 0.00 0.00 56 1021.2
20231205010702 60 307 4.0 9.0 0.00 0.00 0.00 56 1021.1
20231205010401 61 292 4.0 8.0 0.00 0.00 0.00 56 1021.1
20231205010201 61 302 2.0 8.0 0.00 0.00 0.00 56 1021.1
20231205010101 61 304 7.0 8.0 0.00 0.00 0.00 56 1021.2
20231205010008 61 300 3.0 8.0 0.00 0.00 0.00 56 1021.2
20231205005901 61 294 5.0 8.0 0.00 0.00 0.00 56 1021.1
20231205005802 61 286 6.0 8.0 0.00 0.00 0.00 56 1021.1
20231205005701 61 281 8.0 8.0 0.00 0.00 0.00 56 1021.1
20231205005503 61 287 3.0 7.0 0.00 0.00 0.00 56 1021.1
20231205005402 61 287 4.0 7.0 0.00 0.00 0.00 56 1021.1
20231205005305 61 284 6.0 7.0 0.00 0.00 0.00 56 1021.1
20231205005202 61 292 4.0 7.0 0.00 0.00 0.00 56 1021.1
20231205005101 61 292 3.0 7.0 0.00 0.00 0.00 56 1021.1
20231205005003 61 279 6.0 8.0 0.00 0.00 0.00 56 1021.1
20231205004901 61 276 3.0 10.0 0.00 0.00 0.00 56 1021.0
20231205004801 61 275 6.0 10.0 0.00 0.00 0.00 56 1021.1
20231205004701 61 274 4.0 10.0 0.00 0.00 0.00 56 1021.0
20231205004602 61 284 4.0 10.0 0.00 0.00 0.00 56 1021.1
20231205004503 61 294 4.0 10.0 0.00 0.00 0.00 56 1021.1
20231205004301 61 277 3.0 10.0 0.00 0.00 0.00 56 1021.1
20231205004203 61 275 7.0 10.0 0.00 0.00 0.00 56 1021.0
20231205004100 61 279 6.0 10.0 0.00 0.00 0.00 56 1021.1
20231205004002 61 279 4.0 10.0 0.00 0.00 0.00 56 1021.2
20231205003902 61 279 4.0 10.0 0.00 0.00 0.00 56 1021.1
20231205003800 61 276 3.0 10.0 0.00 0.00 0.00 56 1021.1
20231205003701 61 280 6.0 10.0 0.00 0.00 0.00 56 1021.1
20231205003601 61 281 3.0 10.0 0.00 0.00 0.00 56 1021.1
20231205003503 61 298 7.0 10.0 0.00 0.00 0.00 56 1021.1
20231205003402 61 283 8.0 10.0 0.00 0.00 0.00 56 1021.1
20231205003301 61 294 4.0 10.0 0.00 0.00 0.00 56 1021.1
20231205003200 60 272 6.0 10.0 0.00 0.00 0.00 56 1021.1
20231205003102 60 296 3.0 10.0 0.00 0.00 0.00 56 1021.2
20231205003004 60 280 4.0 10.0 0.00 0.00 0.00 56 1021.2
20231205002900 61 267 6.0 10.0 0.00 0.00 0.00 56 1021.2
20231205002801 61 269 6.0 10.0 0.00 0.00 0.00 56 1021.2
20231205002702 61 282 6.0 10.0 0.00 0.00 0.00 56 1021.2
20231205002601 61 287 7.0 10.0 0.00 0.00 0.00 56 1021.2
20231205002502 61 286 4.0 10.0 0.00 0.00 0.00 56 1021.2
20231205002400 61 278 6.0 10.0 0.00 0.00 0.00 56 1021.2
20231205002305 61 290 7.0 10.0 0.00 0.00 0.00 56 1021.2
20231205002200 61 277 6.0 10.0 0.00 0.00 0.00 56 1021.1
20231205002101 61 272 7.0 10.0 0.00 0.00 0.00 56 1021.2
20231205002004 61 278 4.0 9.0 0.00 0.00 0.00 56 1021.2
20231205001902 61 284 4.0 9.0 0.00 0.00 0.00 56 1021.1
20231205001801 61 284 7.0 9.0 0.00 0.00 0.00 56 1021.1
20231205001701 61 266 4.0 9.0 0.00 0.00 0.00 56 1021.1
20231205001602 61 323 5.0 9.0 0.00 0.00 0.00 56 1021.1
20231205001502 61 291 3.0 9.0 0.00 0.00 0.00 56 1021.1
20231205001301 60 300 7.0 9.0 0.00 0.00 0.00 56 1021.1
20231205001201 60 306 3.0 9.0 0.00 0.00 0.00 56 1021.2
20231205001101 60 288 3.0 9.0 0.00 0.00 0.00 56 1021.1
20231205001004 60 281 4.0 9.0 0.00 0.00 0.00 56 1021.1
20231205000901 60 279 6.0 9.0 0.00 0.00 0.00 56 1021.1
20231205000703 60 273 6.0 8.0 0.00 0.00 0.00 56 1021.1
20231205000601 60 271 4.0 8.0 0.00 0.00 0.00 55 1021.2
20231205000503 60 270 4.0 8.0 0.00 0.00 0.00 55 1021.1
20231205000403 60 269 4.0 8.0 0.00 0.00 0.00 55 1021.2
20231205000304 60 268 6.0 8.0 0.00 0.00 0.00 55 1021.2
20231205000204 60 269 4.0 8.0 0.00 0.00 0.00 55 1021.2
20231205000100 61 267 3.0 8.0 0.00 0.00 0.00 55 1021.2
20231205000003 61 266 4.0 8.0 0.00 0.00 0.00 56 1021.3
20231204235801 61 269 4.0 8.0 0.00 0.00 0.00 56 1021.2
20231204235701 61 269 6.0 8.0 0.00 0.00 0.00 55 1021.2
20231204235603 61 267 7.0 8.0 0.00 0.00 0.00 55 1021.2
20231204235401 61 262 4.0 8.0 0.00 0.00 0.00 55 1021.2
20231204235305 61 271 6.0 9.0 0.00 0.00 0.00 55 1021.2
20231204235201 61 269 6.0 9.0 0.00 0.00 0.00 55 1021.2
20231204235101 61 275 6.0 9.0 0.00 0.00 0.00 55 1021.2
20231204235004 61 269 7.0 9.0 0.00 0.00 0.00 55 1021.2
20231204234900 61 272 6.0 9.0 0.00 0.00 0.00 55 1021.2
20231204234701 61 273 6.0 9.0 0.00 0.00 0.00 55 1021.2
20231204234601 61 275 4.0 9.0 0.00 0.00 0.00 55 1021.2
20231204234300 61 289 9.0 9.0 0.00 0.00 0.00 55 1021.2
20231204234202 61 280 4.0 8.0 0.00 0.00 0.00 56 1021.3
20231204234103 61 278 6.0 9.0 0.00 0.00 0.00 56 1021.2
20231204234004 61 288 4.0 9.0 0.00 0.00 0.00 56 1021.2
20231204233601 61 283 4.0 9.0 0.00 0.00 0.00 56 1021.2
20231204233504 61 279 6.0 9.0 0.00 0.00 0.00 56 1021.1
20231204233401 61 273 3.0 9.0 0.00 0.00 0.00 56 1021.2
20231204233303 61 268 7.0 9.0 0.00 0.00 0.00 56 1021.2
20231204233103 61 278 3.0 9.0 0.00 0.00 0.00 55 1021.2
20231204233005 61 273 6.0 9.0 0.00 0.00 0.00 55 1021.3
20231204232901 61 270 7.0 9.0 0.00 0.00 0.00 55 1021.3
20231204232802 61 269 6.0 10.0 0.00 0.00 0.00 55 1021.3
20231204232701 61 271 7.0 10.0 0.00 0.00 0.00 55 1021.3
20231204232601 61 253 4.0 10.0 0.00 0.00 0.00 55 1021.3
20231204232503 61 276 9.0 10.0 0.00 0.00 0.00 55 1021.3
20231204232404 61 268 8.0 10.0 0.00 0.00 0.00 55 1021.3
20231204232302 61 250 7.0 10.0 0.00 0.00 0.00 55 1021.3
20231204232202 62 265 7.0 10.0 0.00 0.00 0.00 55 1021.4
20231204232102 62 272 4.0 10.0 0.00 0.00 0.00 55 1021.4
20231204232006 62 267 9.0 9.0 0.00 0.00 0.00 55 1021.3
20231204231802 62 272 8.0 9.0 0.00 0.00 0.00 55 1021.4
20231204231701 62 269 8.0 9.0 0.00 0.00 0.00 55 1021.3
20231204231503 63 270 7.0 9.0 0.00 0.00 0.00 54 1021.3
20231204231303 63 268 4.0 9.0 0.00 0.00 0.00 54 1021.4
20231204231201 63 268 6.0 9.0 0.00 0.00 0.00 55 1021.4
20231204231103 63 269 2.0 9.0 0.00 0.00 0.00 55 1021.4
20231204231003 63 270 4.0 9.0 0.00 0.00 0.00 54 1021.4
20231204230801 63 291 5.0 9.0 0.00 0.00 0.00 54 1021.4
20231204230701 63 290 5.0 9.0 0.00 0.00 0.00 54 1021.4
20231204230601 63 292 4.0 9.0 0.00 0.00 0.00 54 1021.4
20231204230502 63 288 4.0 9.0 0.00 0.00 0.00 54 1021.5
20231204230401 64 286 4.0 9.0 0.00 0.00 0.00 54 1021.4
20231204230202 63 285 7.0 9.0 0.00 0.00 0.00 54 1021.4
20231204230003 64 293 4.0 9.0 0.00 0.00 0.00 54 1021.4
20231204225700 64 286 7.0 10.0 0.00 0.00 0.00 54 1021.5
20231204225600 63 274 8.0 10.0 0.00 0.00 0.00 54 1021.4
20231204225503 63 292 5.0 10.0 0.00 0.00 0.00 54 1021.3
20231204225400 63 296 3.0 10.0 0.00 0.00 0.00 54 1021.4
20231204225301 63 285 6.0 10.0 0.00 0.00 0.00 54 1021.5
20231204225200 63 283 6.0 10.0 0.00 0.00 0.00 54 1021.5
20231204225101 63 288 4.0 10.0 0.00 0.00 0.00 54 1021.5
20231204224900 63 302 4.0 10.0 0.00 0.00 0.00 54 1021.5
20231204224800 63 284 7.0 9.0 0.00 0.00 0.00 54 1021.4
20231204224701 63 276 3.0 9.0 0.00 0.00 0.00 54 1021.4
20231204224401 63 290 4.0 9.0 0.00 0.00 0.00 54 1021.4
20231204224300 63 291 4.0 9.0 0.00 0.00 0.00 54 1021.5
20231204224200 63 288 2.0 9.0 0.00 0.00 0.00 54 1021.5
20231204224100 63 292 4.0 9.0 0.00 0.00 0.00 54 1021.5
20231204224001 63 288 5.0 9.0 0.00 0.00 0.00 54 1021.5
20231204223900 63 281 9.0 9.0 0.00 0.00 0.00 54 1021.5
20231204223759 63 284 6.0 8.0 0.00 0.00 0.00 54 1021.5
20231204223700 63 281 4.0 8.0 0.00 0.00 0.00 54 1021.5
20231204223559 63 281 4.0 8.0 0.00 0.00 0.00 54 1021.5
20231204223501 63 281 4.0 8.0 0.00 0.00 0.00 54 1021.5
20231204223401 63 280 6.0 8.0 0.00 0.00 0.00 54 1021.6
20231204223300 63 272 6.0 8.0 0.00 0.00 0.00 54 1021.6
20231204223203 63 270 6.0 8.0 0.00 0.00 0.00 54 1021.5
20231204223003 63 269 6.0 8.0 0.00 0.00 0.00 54 1021.5
20231204222900 63 272 4.0 8.0 0.00 0.00 0.00 54 1021.5
20231204222800 63 269 4.0 8.0 0.00 0.00 0.00 54 1021.5
20231204222659 63 269 6.0 8.0 0.00 0.00 0.00 54 1021.6
20231204222604 63 268 6.0 8.0 0.00 0.00 0.00 54 1021.5
20231204222503 63 268 4.0 8.0 0.00 0.00 0.00 54 1021.6
20231204222400 64 264 6.0 8.0 0.00 0.00 0.00 54 1021.6
20231204222301 64 271 4.0 7.0 0.00 0.00 0.00 53 1021.6
20231204222059 64 274 6.0 8.0 0.00 0.00 0.00 54 1021.5
20231204222004 64 275 6.0 8.0 0.00 0.00 0.00 53 1021.5
20231204221902 64 275 4.0 8.0 0.00 0.00 0.00 53 1021.5
20231204221800 64 276 6.0 8.0 0.00 0.00 0.00 53 1021.5
20231204221701 64 277 6.0 8.0 0.00 0.00 0.00 54 1021.5
20231204221600 64 278 4.0 8.0 0.00 0.00 0.00 54 1021.6
20231204221502 64 281 6.0 8.0 0.00 0.00 0.00 54 1021.5
20231204221401 64 280 3.0 8.0 0.00 0.00 0.00 54 1021.6
20231204221301 64 274 7.0 7.0 0.00 0.00 0.00 53 1021.5
20231204221200 64 277 4.0 8.0 0.00 0.00 0.00 53 1021.6
20231204221101 64 278 3.0 8.0 0.00 0.00 0.00 53 1021.5
20231204221001 64 279 4.0 8.0 0.00 0.00 0.00 53 1021.5
20231204220901 64 279 4.0 8.0 0.00 0.00 0.00 53 1021.6
20231204220800 64 281 4.0 8.0 0.00 0.00 0.00 53 1021.6
20231204220659 64 281 3.0 8.0 0.00 0.00 0.00 53 1021.5
20231204220501 64 281 4.0 8.0 0.00 0.00 0.00 53 1021.6
20231204220259 64 283 4.0 7.0 0.00 0.00 0.00 53 1021.5
20231204220159 64 285 4.0 7.0 0.00 0.00 0.00 53 1021.5
20231204220100 64 275 3.0 7.0 0.00 0.00 0.00 53 1021.4
20231204220007 64 276 6.0 7.0 0.00 0.00 0.00 53 1021.4
20231204215901 65 282 3.0 7.0 0.00 0.00 0.00 53 1021.5
20231204215801 65 281 6.0 7.0 0.00 0.00 0.00 53 1021.5
20231204215700 65 278 2.0 7.0 0.00 0.00 0.00 53 1021.5
20231204215603 65 278 3.0 7.0 0.00 0.00 0.00 53 1021.4
20231204215400 65 277 4.0 8.0 0.00 0.00 0.00 53 1021.5
20231204215301 65 273 3.0 8.0 0.00 0.00 0.00 53 1021.5
20231204215201 65 286 4.0 8.0 0.00 0.00 0.00 53 1021.6
20231204215102 65 292 4.0 10.0 0.00 0.00 0.00 53 1021.5
20231204214901 65 292 2.0 10.0 0.00 0.00 0.00 53 1021.5
20231204214801 65 288 4.0 10.0 0.00 0.00 0.00 53 1021.5
20231204214703 65 287 8.0 10.0 0.00 0.00 0.00 53 1021.5
20231204214602 65 294 4.0 10.0 0.00 0.00 0.00 53 1021.5
20231204214402 65 295 5.0 10.0 0.00 0.00 0.00 53 1021.5
20231204214303 65 282 4.0 10.0 0.00 0.00 0.00 53 1021.5
20231204214201 65 292 5.0 8.0 0.00 0.00 0.00 53 1021.5
20231204214103 65 294 4.0 8.0 0.00 0.00 0.00 53 1021.5
20231204214005 65 296 2.0 8.0 0.00 0.00 0.00 53 1021.5
20231204213901 65 296 3.0 8.0 0.00 0.00 0.00 53 1021.4
20231204213801 65 296 4.0 8.0 0.00 0.00 0.00 53 1021.5
20231204213701 65 286 4.0 8.0 0.00 0.00 0.00 53 1021.5
20231204213600 65 286 3.0 8.0 0.00 0.00 0.00 53 1021.5
20231204213403 65 297 4.0 9.0 0.00 0.00 0.00 53 1021.5
20231204213303 65 293 4.0 9.0 0.00 0.00 0.00 53 1021.5
20231204213202 65 290 4.0 9.0 0.00 0.00 0.00 53 1021.6
20231204213102 65 291 4.0 9.0 0.00 0.00 0.00 53 1021.6
20231204212803 65 261 8.0 9.0 0.00 0.00 0.00 53 1021.6
20231204212602 65 294 5.0 9.0 0.00 0.00 0.00 53 1021.6
20231204212507 65 287 3.0 9.0 0.00 0.00 0.00 53 1021.6
20231204212404 65 294 4.0 9.0 0.00 0.00 0.00 53 1021.6
20231204212305 65 293 3.0 10.0 0.00 0.00 0.00 53 1021.6
20231204212203 65 291 7.0 10.0 0.00 0.00 0.00 53 1021.6
20231204212102 65 296 4.0 10.0 0.00 0.00 0.00 53 1021.6
20231204212006 65 280 3.0 10.0 0.00 0.00 0.00 53 1021.6
20231204211901 65 288 7.0 10.0 0.00 0.00 0.00 53 1021.7
20231204211802 65 289 2.0 10.0 0.00 0.00 0.00 53 1021.7
20231204211703 65 289 5.0 10.0 0.00 0.00 0.00 53 1021.6
20231204211602 65 281 4.0 10.0 0.00 0.00 0.00 53 1021.7
20231204211504 65 282 2.0 10.0 0.00 0.00 0.00 53 1021.7
20231204211403 65 285 7.0 9.0 0.00 0.00 0.00 53 1021.7
20231204211305 66 298 1.0 9.0 0.00 0.00 0.00 53 1021.7
20231204211201 66 300 7.0 9.0 0.00 0.00 0.00 53 1021.8
20231204211005 66 272 3.0 9.0 0.00 0.00 0.00 53 1021.8
20231204210904 66 292 3.0 9.0 0.00 0.00 0.00 53 1021.8
20231204210802 66 288 5.0 9.0 0.00 0.00 0.00 53 1021.8
20231204210705 66 283 9.0 9.0 0.00 0.00 0.00 53 1021.7
20231204210603 66 286 3.0 9.0 0.00 0.00 0.00 53 1021.8
20231204210503 66 284 8.0 10.0 0.00 0.00 0.00 53 1021.8
20231204210403 66 309 4.0 10.0 0.00 0.00 0.00 53 1021.8
20231204210302 66 320 4.0 10.0 0.00 0.00 0.00 52 1021.8
20231204210203 66 269 4.0 10.0 0.00 0.00 0.00 52 1021.8
20231204210104 66 306 8.0 10.0 0.00 0.00 0.00 52 1021.8
20231204210011 66 281 6.0 10.0 0.00 0.00 0.00 52 1021.8
20231204205905 66 273 7.0 10.0 0.00 0.00 0.00 52 1021.8
20231204205805 66 296 4.0 10.0 0.00 0.00 0.00 52 1021.8
20231204205705 66 296 3.0 10.0 0.00 0.00 0.00 52 1021.9
20231204205604 66 290 5.0 10.0 0.00 0.00 0.00 52 1021.9
20231204205404 66 298 5.0 9.0 0.00 0.00 0.00 52 1021.9
20231204205104 66 292 2.0 9.0 0.00 0.00 0.00 52 1021.9
20231204205007 66 278 6.0 9.0 0.00 0.00 0.00 52 1021.9
20231204204904 66 284 7.0 9.0 0.00 0.00 0.00 52 1021.8
20231204204803 66 286 3.0 9.0 0.00 0.00 0.00 52 1021.9
20231204204703 66 292 7.0 9.0 0.00 0.00 0.00 52 1022.0
20231204204604 66 300 4.0 8.0 0.00 0.00 0.00 52 1021.9
20231204204506 66 295 8.0 8.0 0.00 0.00 0.00 52 1021.9
20231204204305 66 301 4.0 8.0 0.00 0.00 0.00 52 1021.9
20231204204205 66 297 4.0 8.0 0.00 0.00 0.00 52 1021.9
20231204204104 66 298 2.0 8.0 0.00 0.00 0.00 52 1021.9
20231204204006 66 301 5.0 8.0 0.00 0.00 0.00 52 1021.9
20231204203904 66 299 2.0 8.0 0.00 0.00 0.00 52 1021.9
20231204203803 66 284 4.0 8.0 0.00 0.00 0.00 52 1022.0
20231204203705 66 281 3.0 8.0 0.00 0.00 0.00 52 1022.0
20231204203603 66 280 6.0 8.0 0.00 0.00 0.00 52 1022.0
20231204203505 66 283 3.0 9.0 0.00 0.00 0.00 52 1022.0
20231204203404 66 282 7.0 9.0 0.00 0.00 0.00 52 1022.0
20231204203304 66 294 3.0 9.0 0.00 0.00 0.00 52 1022.1
20231204203204 66 294 3.0 9.0 0.00 0.00 0.00 52 1022.0
20231204203104 67 294 5.0 9.0 0.00 0.00 0.00 51 1022.0
20231204203007 67 299 4.0 9.0 0.00 0.00 0.00 51 1022.0
20231204202905 67 301 4.0 9.0 0.00 0.00 0.00 51 1022.2
20231204202804 67 301 3.0 9.0 0.00 0.00 0.00 51 1022.1
20231204202703 67 302 4.0 9.0 0.00 0.00 0.00 51 1022.1
20231204202604 67 286 3.0 9.0 0.00 0.00 0.00 51 1022.1
20231204202306 67 292 4.0 9.0 0.00 0.00 0.00 51 1022.1
20231204202205 67 292 3.0 9.0 0.00 0.00 0.00 51 1022.1
20231204202104 67 279 4.0 9.0 0.00 0.00 0.00 51 1022.2
20231204202006 67 296 7.0 9.0 0.00 0.00 0.00 51 1022.1
20231204201904 67 287 5.0 9.0 0.00 0.00 0.00 51 1022.1
20231204201704 67 296 7.0 9.0 0.00 0.00 0.00 51 1022.1
20231204201604 67 270 8.0 10.0 0.00 0.00 0.00 51 1022.1
20231204201505 67 280 4.0 10.0 0.00 0.00 0.00 51 1022.2
20231204201404 67 283 7.0 10.0 0.00 0.00 0.00 51 1022.1
20231204201304 67 272 6.0 11.0 0.00 0.00 0.00 51 1022.5
20231204201205 67 265 7.0 11.0 0.00 0.00 0.00 51 1022.5
20231204201105 67 264 4.0 11.0 0.00 0.00 0.00 51 1022.0
20231204201006 67 241 6.0 11.0 0.00 0.00 0.00 51 1022.0
20231204200604 67 293 9.0 11.0 0.00 0.00 0.00 51 1022.1
20231204200505 67 307 10.0 11.0 0.00 0.00 0.00 51 1022.1
20231204200404 67 309 3.0 10.0 0.00 0.00 0.00 51 1022.1
20231204200304 67 300 4.0 10.0 0.00 0.00 0.00 51 1022.1
20231204200207 67 289 2.0 10.0 0.00 0.00 0.00 51 1022.1
20231204200105 67 306 8.0 10.0 0.00 0.00 0.00 51 1022.1
20231204200005 67 302 7.0 10.0 0.00 0.00 0.00 51 1022.0
20231204195903 67 296 10.0 10.0 0.00 0.00 0.00 51 1022.1
20231204195803 67 287 2.0 9.0 0.00 0.00 0.00 51 1022.0
20231204195703 67 295 3.0 9.0 0.00 0.00 0.00 51 1022.0
20231204195603 67 292 5.0 9.0 0.00 0.00 0.00 51 1022.1
20231204195505 67 286 3.0 9.0 0.00 0.00 0.00 51 1022.1
20231204195306 67 304 3.0 9.0 0.00 0.00 0.00 51 1022.0
20231204195203 67 306 7.0 9.0 0.00 0.00 0.00 51 1022.1
20231204195103 67 287 3.0 9.0 0.00 0.00 0.00 51 1022.0
20231204195005 67 288 4.0 9.0 0.00 0.00 0.00 51 1022.1
20231204194903 67 287 3.0 9.0 0.00 0.00 0.00 51 1022.1
20231204194803 67 292 7.0 9.0 0.00 0.00 0.00 51 1022.1
20231204194602 67 305 5.0 9.0 0.00 0.00 0.00 51 1022.1
20231204194506 67 279 4.0 9.0 0.00 0.00 0.00 51 1022.1
20231204194403 67 298 3.0 9.0 0.00 0.00 0.00 51 1022.1
20231204194305 67 296 3.0 9.0 0.00 0.00 0.00 51 1022.1
20231204194203 67 296 5.0 9.0 0.00 0.00 0.00 51 1022.1
20231204194102 67 298 3.0 9.0 0.00 0.00 0.00 50 1022.1
20231204194006 68 297 5.0 9.0 0.00 0.00 0.00 50 1022.2
20231204193803 68 287 4.0 8.0 0.00 0.00 0.00 50 1022.0
20231204193705 68 299 4.0 8.0 0.00 0.00 0.00 50 1022.1
20231204193603 68 301 4.0 8.0 0.00 0.00 0.00 50 1022.1
20231204193506 68 298 8.0 8.0 0.00 0.00 0.00 50 1022.1
20231204193404 68 289 3.0 8.0 0.00 0.00 0.00 50 1022.1
20231204193303 68 287 7.0 8.0 0.00 0.00 0.00 50 1022.1
20231204193203 68 298 3.0 6.0 0.00 0.00 0.00 50 1022.1
20231204193104 68 301 4.0 6.0 0.00 0.00 0.00 50 1022.1
20231204192903 68 305 5.0 6.0 0.00 0.00 0.00 50 1022.2
20231204192803 68 304 3.0 7.0 0.00 0.00 0.00 50 1022.1
20231204192603 68 303 4.0 6.0 0.00 0.00 0.00 50 1022.1
20231204192403 68 299 7.0 8.0 0.00 0.00 0.00 50 1022.1
20231204192313 68 298 5.0 8.0 0.00 0.00 0.00 50 1022.1
20231204192210 68 296 3.0 8.0 0.00 0.00 0.00 50 1022.2
20231204192110 68 265 4.0 8.0 0.00 0.00 0.00 50 1022.1
20231204192024 68 302 3.0 8.0 0.00 0.00 0.00 49 1022.1
20231204191903 68 302 4.0 8.0 0.00 0.00 0.00 49 1022.2
20231204191803 68 300 3.0 8.0 0.00 0.00 0.00 49 1022.1
20231204191704 68 297 2.0 8.0 0.00 0.00 0.00 49 1022.2
20231204191603 68 313 4.0 8.0 0.00 0.00 0.00 49 1022.2
20231204191504 68 309 3.0 8.0 0.00 0.00 0.00 49 1022.1
20231204191405 68 298 7.0 8.0 0.00 0.00 0.00 49 1022.1
20231204191304 68 298 3.0 9.0 0.00 0.00 0.00 49 1022.1
20231204191203 68 296 5.0 9.0 0.00 0.00 0.00 49 1022.1
20231204191103 68 301 5.0 9.0 0.00 0.00 0.00 49 1022.2
20231204191005 68 294 7.0 9.0 0.00 0.00 0.00 49 1022.1
20231204190902 68 297 4.0 9.0 0.00 0.00 0.00 49 1022.1
20231204190803 68 292 7.0 9.0 0.00 0.00 0.00 49 1022.1